Time,TemperatureF,DewpointF,PressureIn,WindDirection,WindDirectionDegrees,WindSpeedMPH,WindSpeedGustMPH,Humidity,HourlyPrecipIn,Conditions,Clouds,dailyrainin,SoftwareType,DateUTC
2013-01-08 00:03:00,31.4,22.1,30.06,SSW,202,4.8,4.8,68,0.00,,CLR,0.00,VWS V14.01,2013-01-08 06:03:00,
2013-01-08 00:04:00,31.4,22.1,30.06,SSW,202,4.0,4.8,68,0.00,,CLR,0.00,VWS V14.01,2013-01-08 06:04:00,
2013-01-08 00:07:00,31.4,22.1,30.06,South,180,1.6,1.6,68,0.00,,CLR,0.00,VWS V14.01,2013-01-08 06:07:00,
2013-01-08 00:10:00,31.4,22.1,30.06,SSW,202,0.0,0.0,68,0.00,,CLR,0.00,VWS V14.01,2013-01-08 06:10:00,
2013-01-08 00:12:00,31.6,22.3,30.06,SSW,202,0.0,0.0,68,0.00,,CLR,0.00,VWS V14.01,2013-01-08 06:12:00,
2013-01-08 00:13:00,31.6,22.3,30.06,SW,225,0.0,0.0,68,0.00,,CLR,0.00,VWS V14.01,2013-01-08 06:13:00,
2013-01-08 00:15:00,31.6,22.3,30.06,South,180,0.0,5.8,68,0.00,,CLR,0.00,VWS V14.01,2013-01-08 06:15:00,
2013-01-08 00:18:00,31.8,22.5,30.06,South,180,0.0,0.0,68,0.00,,CLR,0.00,VWS V14.01,2013-01-08 06:18:00,
2013-01-08 00:20:00,31.8,22.5,30.06,SSW,202,0.0,0.0,68,0.00,,CLR,0.00,VWS V14.01,2013-01-08 06:20:00,
2013-01-08 00:22:00,31.8,22.5,30.06,SSE,158,2.6,2.6,68,0.00,,CLR,0.00,VWS V14.01,2013-01-08 06:22:00,
2013-01-08 00:23:00,31.8,22.5,30.06,SSW,202,0.0,2.6,68,0.00,,CLR,0.00,VWS V14.01,2013-01-08 06:23:00,
2013-01-08 00:26:00,31.8,22.1,30.06,South,180,0.0,0.0,67,0.00,,CLR,0.00,VWS V14.01,2013-01-08 06:26:00,
2013-01-08 00:27:00,31.8,22.1,30.06,South,180,0.0,0.0,67,0.00,,CLR,0.00,VWS V14.01,2013-01-08 06:27:00,
2013-01-08 00:29:00,31.8,22.1,30.06,South,180,0.0,0.0,67,0.00,,CLR,0.00,VWS V14.01,2013-01-08 06:29:00,
2013-01-08 00:30:00,31.8,22.1,30.06,South,180,1.2,1.2,67,0.00,,CLR,0.00,VWS V14.01,2013-01-08 06:30:00,
2013-01-08 00:32:00,32.0,22.3,30.06,SSW,202,0.0,0.0,67,0.00,,CLR,0.00,VWS V14.01,2013-01-08 06:32:00,
2013-01-08 00:37:00,32.1,22.4,30.06,South,180,0.0,0.0,67,0.00,,CLR,0.00,VWS V14.01,2013-01-08 06:37:00,
2013-01-08 00:38:00,32.1,22.4,30.06,South,180,0.0,0.0,67,0.00,,CLR,0.00,VWS V14.01,2013-01-08 06:38:00,
2013-01-08 00:39:00,32.1,22.4,30.06,South,180,0.0,0.0,67,0.00,,CLR,0.00,VWS V14.01,2013-01-08 06:39:00,
2013-01-08 00:42:00,32.1,22.4,30.06,South,180,0.0,0.0,67,0.00,,CLR,0.00,VWS V14.01,2013-01-08 06:42:00,
2013-01-08 00:43:00,32.0,22.3,30.06,South,180,0.0,0.0,67,0.00,,CLR,0.00,VWS V14.01,2013-01-08 06:43:00,
2013-01-08 00:44:00,32.1,22.4,30.05,South,180,0.0,0.0,67,0.00,,CLR,0.00,VWS V14.01,2013-01-08 06:44:00,
2013-01-08 00:47:00,32.1,22.4,30.06,South,180,0.0,0.0,67,0.00,,CLR,0.00,VWS V14.01,2013-01-08 06:47:00,
2013-01-08 00:50:00,32.1,22.4,30.06,North,0,0.0,0.0,67,0.00,,CLR,0.00,VWS V14.01,2013-01-08 06:50:00,
2013-01-08 00:55:00,31.8,22.1,30.06,South,180,0.0,0.0,67,0.00,,CLR,0.00,VWS V14.01,2013-01-08 06:55:00,
2013-01-08 00:56:00,32.1,22.4,30.06,South,180,0.0,0.0,67,0.00,,CLR,0.00,VWS V14.01,2013-01-08 06:56:00,
2013-01-08 00:58:00,32.1,22.4,30.06,South,180,0.0,0.0,67,0.00,,CLR,0.00,VWS V14.01,2013-01-08 06:58:00,
2013-01-08 01:03:00,32.1,22.4,30.06,SSE,158,0.0,0.0,67,0.00,,CLR,0.00,VWS V14.01,2013-01-08 07:03:00,
2013-01-08 01:04:00,32.1,22.4,30.06,South,180,0.0,0.0,67,0.00,,CLR,0.00,VWS V14.01,2013-01-08 07:04:00,
2013-01-08 01:06:00,32.0,22.3,30.06,South,180,0.0,0.0,67,0.00,,CLR,0.00,VWS V14.01,2013-01-08 07:06:00,
2013-01-08 01:07:00,32.1,22.4,30.06,South,180,0.0,0.0,67,0.00,,CLR,0.00,VWS V14.01,2013-01-08 07:07:00,
2013-01-08 01:09:00,32.1,22.4,30.06,SSE,158,0.0,0.0,67,0.00,,CLR,0.00,VWS V14.01,2013-01-08 07:09:00,
2013-01-08 01:12:00,32.1,22.4,30.06,SSE,158,0.0,0.0,67,0.00,,CLR,0.00,VWS V14.01,2013-01-08 07:12:00,
2013-01-08 01:15:00,32.1,22.0,30.06,SSE,158,0.0,1.6,66,0.00,,CLR,0.00,VWS V14.01,2013-01-08 07:15:00,
2013-01-08 01:16:00,32.1,22.0,30.06,SSE,158,0.0,1.6,66,0.00,,CLR,0.00,VWS V14.01,2013-01-08 07:16:00,
2013-01-08 01:18:00,32.1,22.0,30.06,South,180,0.0,0.0,66,0.00,,CLR,0.00,VWS V14.01,2013-01-08 07:18:00,
2013-01-08 01:20:00,32.1,22.0,30.06,South,180,0.0,0.0,66,0.00,,CLR,0.00,VWS V14.01,2013-01-08 07:20:00,
2013-01-08 01:22:00,32.1,22.0,30.06,South,180,0.0,0.0,66,0.00,,CLR,0.00,VWS V14.01,2013-01-08 07:22:00,
2013-01-08 01:24:00,32.1,22.0,30.06,South,180,0.0,0.0,66,0.00,,CLR,0.00,VWS V14.01,2013-01-08 07:24:00,
2013-01-08 01:26:00,32.1,22.0,30.06,South,180,0.0,0.0,66,0.00,,CLR,0.00,VWS V14.01,2013-01-08 07:26:00,
2013-01-08 01:27:00,32.1,22.0,30.06,SSE,158,0.0,0.0,66,0.00,,CLR,0.00,VWS V14.01,2013-01-08 07:27:00,
2013-01-08 01:29:00,32.1,22.0,30.06,SSW,202,0.0,0.0,66,0.00,,CLR,0.00,VWS V14.01,2013-01-08 07:29:00,
2013-01-08 01:32:00,32.1,22.0,30.06,SSW,202,0.0,1.6,66,0.00,,CLR,0.00,VWS V14.01,2013-01-08 07:32:00,
2013-01-08 01:33:00,32.1,22.0,30.06,SSE,158,0.0,0.0,66,0.00,,CLR,0.00,VWS V14.01,2013-01-08 07:33:00,
2013-01-08 01:34:00,32.1,22.0,30.06,SSE,158,0.0,0.0,66,0.00,,CLR,0.00,VWS V14.01,2013-01-08 07:34:00,
2013-01-08 01:37:00,32.1,22.0,30.06,South,180,0.0,0.0,66,0.00,,CLR,0.00,VWS V14.01,2013-01-08 07:37:00,
2013-01-08 01:38:00,32.1,22.0,30.06,SSW,202,0.0,0.0,66,0.00,,CLR,0.00,VWS V14.01,2013-01-08 07:38:00,
2013-01-08 01:39:00,32.1,22.0,30.06,SSW,202,0.0,0.0,66,0.00,,CLR,0.00,VWS V14.01,2013-01-08 07:39:00,
2013-01-08 01:42:00,32.1,22.0,30.07,South,180,0.0,0.0,66,0.00,,CLR,0.00,VWS V14.01,2013-01-08 07:42:00,
2013-01-08 01:43:00,32.1,22.0,30.06,South,180,0.0,0.0,66,0.00,,CLR,0.00,VWS V14.01,2013-01-08 07:43:00,
2013-01-08 01:46:00,32.1,22.0,30.06,SSE,158,0.0,0.0,66,0.00,,CLR,0.00,VWS V14.01,2013-01-08 07:46:00,
2013-01-08 01:48:00,32.1,22.0,30.06,South,180,0.0,0.0,66,0.00,,CLR,0.00,VWS V14.01,2013-01-08 07:48:00,
2013-01-08 01:49:00,32.1,22.0,30.06,South,180,0.0,0.0,66,0.00,,CLR,0.00,VWS V14.01,2013-01-08 07:49:00,
2013-01-08 01:51:00,32.1,22.0,30.07,South,180,0.0,0.0,66,0.00,,CLR,0.00,VWS V14.01,2013-01-08 07:51:00,
2013-01-08 01:52:00,32.1,22.0,30.07,SSE,158,0.0,0.0,66,0.00,,CLR,0.00,VWS V14.01,2013-01-08 07:52:00,
2013-01-08 01:54:00,32.1,22.0,30.07,SSE,158,0.0,0.0,66,0.00,,CLR,0.00,VWS V14.01,2013-01-08 07:54:00,
2013-01-08 01:56:00,32.1,22.0,30.06,SSE,158,0.0,0.0,66,0.00,,CLR,0.00,VWS V14.01,2013-01-08 07:56:00,
2013-01-08 01:57:00,32.1,22.0,30.07,South,180,0.0,0.0,66,0.00,,CLR,0.00,VWS V14.01,2013-01-08 07:57:00,
2013-01-08 01:59:00,32.1,22.0,30.07,SSE,158,0.0,0.0,66,0.00,,CLR,0.00,VWS V14.01,2013-01-08 07:59:00,
2013-01-08 02:03:00,32.1,22.0,30.07,South,180,0.0,0.0,66,0.00,,CLR,0.00,VWS V14.01,2013-01-08 08:03:00,
2013-01-08 02:04:00,32.1,22.0,30.07,South,180,0.0,0.0,66,0.00,,CLR,0.00,VWS V14.01,2013-01-08 08:04:00,
2013-01-08 02:07:00,32.0,21.9,30.06,SSW,202,0.0,0.0,66,0.00,,CLR,0.00,VWS V14.01,2013-01-08 08:07:00,
2013-01-08 02:09:00,32.0,21.9,30.07,South,180,0.0,0.0,66,0.00,,CLR,0.00,VWS V14.01,2013-01-08 08:09:00,
2013-01-08 02:11:00,31.8,21.8,30.06,SSW,202,0.0,0.0,66,0.00,,CLR,0.00,VWS V14.01,2013-01-08 08:11:00,
2013-01-08 02:12:00,31.8,21.8,30.07,SSW,202,0.0,0.0,66,0.00,,CLR,0.00,VWS V14.01,2013-01-08 08:12:00,
2013-01-08 02:16:00,31.8,21.8,30.07,SSW,202,0.0,0.0,66,0.00,,CLR,0.00,VWS V14.01,2013-01-08 08:16:00,
2013-01-08 02:17:00,31.6,21.6,30.07,SSW,202,0.0,0.0,66,0.00,,CLR,0.00,VWS V14.01,2013-01-08 08:17:00,
2013-01-08 02:18:00,31.8,21.8,30.07,SSW,202,0.0,0.0,66,0.00,,CLR,0.00,VWS V14.01,2013-01-08 08:18:00,
2013-01-08 02:20:00,31.8,21.8,30.07,SSW,202,0.0,0.0,66,0.00,,CLR,0.00,VWS V14.01,2013-01-08 08:20:00,
2013-01-08 02:24:00,31.8,21.8,30.07,SSE,158,0.0,0.0,66,0.00,,CLR,0.00,VWS V14.01,2013-01-08 08:24:00,
2013-01-08 02:26:00,31.8,21.8,30.07,South,180,0.0,0.0,66,0.00,,CLR,0.00,VWS V14.01,2013-01-08 08:26:00,
2013-01-08 02:30:00,31.8,21.8,30.07,South,180,0.0,0.0,66,0.00,,CLR,0.00,VWS V14.01,2013-01-08 08:30:00,
2013-01-08 02:31:00,31.8,21.8,30.07,South,180,0.0,0.0,66,0.00,,CLR,0.00,VWS V14.01,2013-01-08 08:31:00,
2013-01-08 02:32:00,31.8,21.8,30.07,South,180,0.0,0.0,66,0.00,,CLR,0.00,VWS V14.01,2013-01-08 08:32:00,
2013-01-08 02:34:00,31.8,21.8,30.07,South,180,0.0,0.0,66,0.00,,CLR,0.00,VWS V14.01,2013-01-08 08:34:00,
2013-01-08 02:36:00,31.8,21.8,30.07,South,180,0.0,0.0,66,0.00,,CLR,0.00,VWS V14.01,2013-01-08 08:36:00,
2013-01-08 02:37:00,31.8,21.8,30.07,South,180,0.0,0.0,66,0.00,,CLR,0.00,VWS V14.01,2013-01-08 08:37:00,
2013-01-08 02:40:00,31.8,21.8,30.07,South,180,0.0,0.0,66,0.00,,CLR,0.00,VWS V14.01,2013-01-08 08:40:00,
2013-01-08 02:42:00,31.8,21.8,30.07,South,180,0.0,0.0,66,0.00,,CLR,0.00,VWS V14.01,2013-01-08 08:42:00,
2013-01-08 02:44:00,31.8,21.4,30.07,South,180,0.0,0.0,65,0.00,,CLR,0.00,VWS V14.01,2013-01-08 08:44:00,
2013-01-08 02:46:00,31.8,21.4,30.07,SSE,158,0.0,0.0,65,0.00,,CLR,0.00,VWS V14.01,2013-01-08 08:46:00,
2013-01-08 02:47:00,31.8,21.4,30.07,SSE,158,0.0,0.0,65,0.00,,CLR,0.00,VWS V14.01,2013-01-08 08:47:00,
2013-01-08 02:49:00,31.6,21.2,30.07,SSW,202,2.2,2.2,65,0.00,,CLR,0.00,VWS V14.01,2013-01-08 08:49:00,
2013-01-08 02:50:00,31.8,21.4,30.07,SSE,158,0.0,0.0,65,0.00,,CLR,0.00,VWS V14.01,2013-01-08 08:50:00,
2013-01-08 02:53:00,31.6,21.2,30.07,South,180,0.0,0.0,65,0.00,,CLR,0.00,VWS V14.01,2013-01-08 08:53:00,
2013-01-08 02:55:00,31.8,21.4,30.07,South,180,0.0,0.0,65,0.00,,CLR,0.00,VWS V14.01,2013-01-08 08:55:00,
2013-01-08 02:56:00,31.8,21.4,30.07,SSW,202,0.0,0.0,65,0.00,,CLR,0.00,VWS V14.01,2013-01-08 08:56:00,
2013-01-08 03:00:00,32.0,21.6,30.07,SSW,202,0.0,0.0,65,0.00,,CLR,0.00,VWS V14.01,2013-01-08 09:00:00,
2013-01-08 03:01:00,31.8,21.4,30.07,SSW,202,0.0,0.0,65,0.00,,CLR,0.00,VWS V14.01,2013-01-08 09:01:00,
2013-01-08 03:02:00,31.8,21.4,30.07,SSW,202,0.0,0.0,65,0.00,,CLR,0.00,VWS V14.01,2013-01-08 09:02:00,
2013-01-08 03:05:00,31.8,21.4,30.07,SSW,202,0.0,0.0,65,0.00,,CLR,0.00,VWS V14.01,2013-01-08 09:05:00,
2013-01-08 03:07:00,32.1,21.7,30.07,SSW,202,0.0,3.4,65,0.00,,CLR,0.00,VWS V14.01,2013-01-08 09:07:00,
2013-01-08 03:08:00,32.1,21.7,30.07,SW,225,0.0,3.4,65,0.00,,CLR,0.00,VWS V14.01,2013-01-08 09:08:00,
2013-01-08 03:09:00,32.0,21.6,30.07,SSW,202,0.0,0.0,65,0.00,,CLR,0.00,VWS V14.01,2013-01-08 09:09:00,
2013-01-08 03:12:00,32.1,21.7,30.07,South,180,0.0,0.0,65,0.00,,CLR,0.00,VWS V14.01,2013-01-08 09:12:00,
2013-01-08 03:13:00,32.0,21.6,30.07,South,180,0.0,0.0,65,0.00,,CLR,0.00,VWS V14.01,2013-01-08 09:13:00,
2013-01-08 03:14:00,31.8,21.4,30.07,SSE,158,2.6,2.6,65,0.00,,CLR,0.00,VWS V14.01,2013-01-08 09:14:00,
2013-01-08 03:17:00,31.8,21.4,30.07,SSE,158,0.0,1.2,65,0.00,,CLR,0.00,VWS V14.01,2013-01-08 09:17:00,
2013-01-08 03:19:00,31.8,21.4,30.07,South,180,0.0,0.0,65,0.00,,CLR,0.00,VWS V14.01,2013-01-08 09:19:00,
2013-01-08 03:20:00,31.6,21.2,30.07,South,180,0.0,0.0,65,0.00,,CLR,0.00,VWS V14.01,2013-01-08 09:20:00,
2013-01-08 03:22:00,31.6,21.2,30.07,SSW,202,3.4,3.4,65,0.00,,CLR,0.00,VWS V14.01,2013-01-08 09:22:00,
2013-01-08 03:24:00,31.6,21.2,30.07,SSW,202,0.0,0.0,65,0.00,,CLR,0.00,VWS V14.01,2013-01-08 09:24:00,
2013-01-08 03:25:00,31.6,21.2,30.07,South,180,0.0,0.0,65,0.00,,CLR,0.00,VWS V14.01,2013-01-08 09:25:00,
2013-01-08 03:28:00,31.4,21.0,30.07,South,180,2.6,2.6,65,0.00,,CLR,0.00,VWS V14.01,2013-01-08 09:28:00,
2013-01-08 03:29:00,31.4,21.0,30.07,SSW,202,2.6,2.6,65,0.00,,CLR,0.00,VWS V14.01,2013-01-08 09:29:00,
2013-01-08 03:31:00,31.4,21.0,30.07,SSW,202,0.0,0.0,65,0.00,,CLR,0.00,VWS V14.01,2013-01-08 09:31:00,
2013-01-08 03:34:00,31.4,21.0,30.06,SSW,202,0.0,0.0,65,0.00,,CLR,0.00,VWS V14.01,2013-01-08 09:34:00,
2013-01-08 03:36:00,31.4,21.0,30.06,South,180,0.0,3.4,65,0.00,,CLR,0.00,VWS V14.01,2013-01-08 09:36:00,
2013-01-08 03:37:00,31.2,20.8,30.06,South,180,0.0,0.0,65,0.00,,CLR,0.00,VWS V14.01,2013-01-08 09:37:00,
2013-01-08 03:39:00,31.2,20.8,30.06,South,180,0.0,0.0,65,0.00,,CLR,0.00,VWS V14.01,2013-01-08 09:39:00,
2013-01-08 03:40:00,31.1,20.7,30.06,South,180,0.0,0.0,65,0.00,,CLR,0.00,VWS V14.01,2013-01-08 09:40:00,
2013-01-08 03:42:00,31.1,20.7,30.06,SSE,158,0.0,0.0,65,0.00,,CLR,0.00,VWS V14.01,2013-01-08 09:42:00,
2013-01-08 03:43:00,31.1,20.7,30.06,SSE,158,0.0,0.0,65,0.00,,CLR,0.00,VWS V14.01,2013-01-08 09:43:00,
2013-01-08 03:46:00,30.9,20.5,30.06,SSE,158,0.0,0.0,65,0.00,,CLR,0.00,VWS V14.01,2013-01-08 09:46:00,
2013-01-08 03:48:00,30.9,20.5,30.06,SSE,158,0.0,3.0,65,0.00,,CLR,0.00,VWS V14.01,2013-01-08 09:48:00,
2013-01-08 03:53:00,30.9,20.5,30.06,SSE,158,0.0,0.0,65,0.00,,CLR,0.00,VWS V14.01,2013-01-08 09:53:00,
2013-01-08 03:54:00,30.7,20.3,30.06,South,180,0.0,0.0,65,0.00,,CLR,0.00,VWS V14.01,2013-01-08 09:54:00,
2013-01-08 03:55:00,30.7,20.3,30.06,South,180,0.0,0.0,65,0.00,,CLR,0.00,VWS V14.01,2013-01-08 09:55:00,
2013-01-08 03:59:00,30.5,20.1,30.06,South,180,0.0,0.0,65,0.00,,CLR,0.00,VWS V14.01,2013-01-08 09:59:00,
2013-01-08 04:00:00,30.5,20.1,30.06,South,180,0.0,0.0,65,0.00,,CLR,0.00,VWS V14.01,2013-01-08 10:00:00,
2013-01-08 04:03:00,30.5,20.1,30.06,South,180,0.0,0.0,65,0.00,,CLR,0.00,VWS V14.01,2013-01-08 10:03:00,
2013-01-08 04:05:00,30.5,20.1,30.06,South,180,0.0,0.0,65,0.00,,CLR,0.00,VWS V14.01,2013-01-08 10:05:00,
2013-01-08 04:07:00,30.3,20.0,30.06,SSE,158,0.0,0.0,65,0.00,,CLR,0.00,VWS V14.01,2013-01-08 10:07:00,
2013-01-08 04:08:00,30.3,20.0,30.06,SSE,158,0.0,0.0,65,0.00,,CLR,0.00,VWS V14.01,2013-01-08 10:08:00,
2013-01-08 04:10:00,30.3,20.0,30.07,SSE,158,0.0,0.0,65,0.00,,CLR,0.00,VWS V14.01,2013-01-08 10:10:00,
2013-01-08 04:14:00,30.3,20.0,30.06,SSE,158,0.0,0.0,65,0.00,,CLR,0.00,VWS V14.01,2013-01-08 10:14:00,
2013-01-08 04:16:00,30.3,20.0,30.06,SSE,158,0.0,0.0,65,0.00,,CLR,0.00,VWS V14.01,2013-01-08 10:16:00,
2013-01-08 04:19:00,30.0,20.0,30.06,SSE,158,0.0,0.0,66,0.00,,CLR,0.00,VWS V14.01,2013-01-08 10:19:00,
2013-01-08 04:20:00,30.0,20.0,30.06,SSE,158,0.0,0.0,66,0.00,,CLR,0.00,VWS V14.01,2013-01-08 10:20:00,
2013-01-08 04:21:00,29.8,19.8,30.06,SSE,158,0.0,0.0,66,0.00,,CLR,0.00,VWS V14.01,2013-01-08 10:21:00,
2013-01-08 04:24:00,29.6,19.6,30.06,SSE,158,0.0,0.0,66,0.00,,CLR,0.00,VWS V14.01,2013-01-08 10:24:00,
2013-01-08 04:25:00,29.6,19.6,30.06,SSE,158,0.0,0.0,66,0.00,,CLR,0.00,VWS V14.01,2013-01-08 10:25:00,
2013-01-08 04:26:00,29.6,19.6,30.06,SSE,158,0.0,0.0,66,0.00,,CLR,0.00,VWS V14.01,2013-01-08 10:26:00,
2013-01-08 04:28:00,29.4,19.5,30.06,SSE,158,0.0,0.0,66,0.00,,CLR,0.00,VWS V14.01,2013-01-08 10:28:00,
2013-01-08 04:30:00,29.3,19.4,30.06,SSE,158,0.0,0.0,66,0.00,,CLR,0.00,VWS V14.01,2013-01-08 10:30:00,
2013-01-08 04:31:00,29.3,19.4,30.06,SSE,158,0.0,0.0,66,0.00,,CLR,0.00,VWS V14.01,2013-01-08 10:31:00,
2013-01-08 04:32:00,29.4,19.5,30.06,SSE,158,0.0,0.0,66,0.00,,CLR,0.00,VWS V14.01,2013-01-08 10:32:00,
2013-01-08 04:36:00,29.4,19.5,30.06,SSE,158,0.0,0.0,66,0.00,,CLR,0.00,VWS V14.01,2013-01-08 10:36:00,
2013-01-08 04:37:00,29.4,19.5,30.05,SSE,158,0.0,0.0,66,0.00,,CLR,0.00,VWS V14.01,2013-01-08 10:37:00,
2013-01-08 04:38:00,29.4,19.8,30.06,SSE,158,0.0,0.0,67,0.00,,CLR,0.00,VWS V14.01,2013-01-08 10:38:00,
2013-01-08 04:40:00,29.4,19.8,30.06,SSE,158,0.0,0.0,67,0.00,,CLR,0.00,VWS V14.01,2013-01-08 10:40:00,
2013-01-08 04:43:00,29.4,19.8,30.06,SSE,158,0.0,0.0,67,0.00,,CLR,0.00,VWS V14.01,2013-01-08 10:43:00,
2013-01-08 04:44:00,29.3,19.7,30.06,SSE,158,0.0,0.0,67,0.00,,CLR,0.00,VWS V14.01,2013-01-08 10:44:00,
2013-01-08 04:48:00,29.3,19.7,30.05,SSE,158,0.0,0.0,67,0.00,,CLR,0.00,VWS V14.01,2013-01-08 10:48:00,
2013-01-08 04:49:00,29.3,19.7,30.06,SSE,158,0.0,0.0,67,0.00,,CLR,0.00,VWS V14.01,2013-01-08 10:49:00,
2013-01-08 04:52:00,29.4,19.8,30.05,SSE,158,0.0,0.0,67,0.00,,CLR,0.00,VWS V14.01,2013-01-08 10:52:00,
2013-01-08 04:54:00,29.3,19.7,30.05,SSE,158,0.0,0.0,67,0.00,,CLR,0.00,VWS V14.01,2013-01-08 10:54:00,
2013-01-08 04:57:00,29.4,19.8,30.06,SSE,158,0.0,0.0,67,0.00,,CLR,0.00,VWS V14.01,2013-01-08 10:57:00,
2013-01-08 04:58:00,29.4,19.8,30.05,SSE,158,0.0,0.0,67,0.00,,CLR,0.00,VWS V14.01,2013-01-08 10:58:00,
2013-01-08 05:00:00,29.3,19.7,30.06,SSE,158,0.0,0.0,67,0.00,,CLR,0.00,VWS V14.01,2013-01-08 11:00:00,
2013-01-08 05:03:00,29.3,19.7,30.06,South,180,0.0,0.0,67,0.00,,CLR,0.00,VWS V14.01,2013-01-08 11:03:00,
2013-01-08 05:04:00,29.3,19.7,30.06,SSE,158,0.0,0.0,67,0.00,,CLR,0.00,VWS V14.01,2013-01-08 11:04:00,
2013-01-08 05:05:00,29.3,19.7,30.06,South,180,0.0,0.0,67,0.00,,CLR,0.00,VWS V14.01,2013-01-08 11:05:00,
2013-01-08 05:08:00,29.3,19.7,30.05,SSE,158,0.0,0.0,67,0.00,,CLR,0.00,VWS V14.01,2013-01-08 11:08:00,
2013-01-08 05:09:00,29.4,19.8,30.06,South,180,0.0,0.0,67,0.00,,CLR,0.00,VWS V14.01,2013-01-08 11:09:00,
2013-01-08 05:11:00,29.3,19.7,30.06,South,180,0.0,0.0,67,0.00,,CLR,0.00,VWS V14.01,2013-01-08 11:11:00,
2013-01-08 05:12:00,29.3,19.7,30.05,SSE,158,0.0,0.0,67,0.00,,CLR,0.00,VWS V14.01,2013-01-08 11:12:00,
2013-01-08 05:14:00,29.3,19.7,30.05,SSE,158,0.0,0.0,67,0.00,,CLR,0.00,VWS V14.01,2013-01-08 11:14:00,
2013-01-08 05:16:00,29.3,19.7,30.05,SSE,158,0.0,0.0,67,0.00,,CLR,0.00,VWS V14.01,2013-01-08 11:16:00,
2013-01-08 05:18:00,29.3,19.7,30.05,SSE,158,0.0,0.0,67,0.00,,CLR,0.00,VWS V14.01,2013-01-08 11:18:00,
2013-01-08 05:20:00,29.4,19.8,30.05,SSE,158,6.6,6.6,67,0.00,,CLR,0.00,VWS V14.01,2013-01-08 11:20:00,
2013-01-08 05:21:00,29.4,19.8,30.05,South,180,0.0,6.6,67,0.00,,CLR,0.00,VWS V14.01,2013-01-08 11:21:00,
2013-01-08 05:24:00,29.6,20.0,30.05,SSW,202,0.0,3.4,67,0.00,,CLR,0.00,VWS V14.01,2013-01-08 11:24:00,
2013-01-08 05:27:00,29.6,20.0,30.05,SSE,158,0.0,0.0,67,0.00,,CLR,0.00,VWS V14.01,2013-01-08 11:27:00,
2013-01-08 05:29:00,29.6,20.0,30.06,SSE,158,0.0,0.0,67,0.00,,CLR,0.00,VWS V14.01,2013-01-08 11:29:00,
2013-01-08 05:31:00,29.6,20.0,30.05,SSE,158,0.0,0.0,67,0.00,,CLR,0.00,VWS V14.01,2013-01-08 11:31:00,
2013-01-08 05:33:00,29.6,20.0,30.05,South,180,0.0,0.0,67,0.00,,CLR,0.00,VWS V14.01,2013-01-08 11:33:00,
2013-01-08 05:34:00,29.4,19.8,30.05,SSW,202,0.0,0.0,67,0.00,,CLR,0.00,VWS V14.01,2013-01-08 11:34:00,
2013-01-08 05:36:00,29.6,20.0,30.05,SSE,158,0.0,0.0,67,0.00,,CLR,0.00,VWS V14.01,2013-01-08 11:36:00,
2013-01-08 05:38:00,29.6,20.0,30.05,SSE,158,0.0,0.0,67,0.00,,CLR,0.00,VWS V14.01,2013-01-08 11:38:00,
2013-01-08 05:39:00,29.6,20.0,30.05,South,180,0.0,0.0,67,0.00,,CLR,0.00,VWS V14.01,2013-01-08 11:39:00,
2013-01-08 05:40:00,29.6,20.0,30.05,South,180,0.0,0.0,67,0.00,,CLR,0.00,VWS V14.01,2013-01-08 11:40:00,
2013-01-08 05:42:00,29.6,20.0,30.05,SSE,158,0.0,0.0,67,0.00,,CLR,0.00,VWS V14.01,2013-01-08 11:42:00,
2013-01-08 05:45:00,29.6,19.6,30.05,SSE,158,0.0,0.0,66,0.00,,CLR,0.00,VWS V14.01,2013-01-08 11:45:00,
2013-01-08 05:46:00,29.4,19.5,30.05,SSE,158,2.2,2.2,66,0.00,,CLR,0.00,VWS V14.01,2013-01-08 11:46:00,
2013-01-08 05:47:00,29.6,19.6,30.05,SSE,158,5.2,5.2,66,0.00,,CLR,0.00,VWS V14.01,2013-01-08 11:47:00,
2013-01-08 05:50:00,29.6,19.6,30.05,SSE,158,0.0,0.0,66,0.00,,CLR,0.00,VWS V14.01,2013-01-08 11:50:00,
2013-01-08 05:51:00,29.4,19.5,30.05,South,180,0.0,0.0,66,0.00,,CLR,0.00,VWS V14.01,2013-01-08 11:51:00,
2013-01-08 05:52:00,29.6,19.6,30.05,SSE,158,0.0,0.0,66,0.00,,CLR,0.00,VWS V14.01,2013-01-08 11:52:00,
2013-01-08 05:55:00,29.6,19.6,30.05,South,180,1.2,1.2,66,0.00,,CLR,0.00,VWS V14.01,2013-01-08 11:55:00,
2013-01-08 05:56:00,29.6,19.6,30.05,South,180,0.0,0.0,66,0.00,,CLR,0.00,VWS V14.01,2013-01-08 11:56:00,
2013-01-08 05:57:00,29.6,19.6,30.05,SSE,158,0.0,0.0,66,0.00,,CLR,0.00,VWS V14.01,2013-01-08 11:57:00,
2013-01-08 06:01:00,29.6,19.6,30.05,SSE,158,0.0,0.0,66,0.00,,CLR,0.00,VWS V14.01,2013-01-08 12:01:00,
2013-01-08 06:02:00,29.4,19.5,30.05,SSE,158,0.0,0.0,66,0.00,,CLR,0.00,VWS V14.01,2013-01-08 12:02:00,
2013-01-08 06:03:00,29.4,19.5,30.06,SSE,158,0.0,0.0,66,0.00,,CLR,0.00,VWS V14.01,2013-01-08 12:03:00,
2013-01-08 06:07:00,29.4,19.5,30.06,SSE,158,0.0,0.0,66,0.00,,CLR,0.00,VWS V14.01,2013-01-08 12:07:00,
2013-01-08 06:08:00,29.4,19.5,30.06,SSE,158,0.0,0.0,66,0.00,,CLR,0.00,VWS V14.01,2013-01-08 12:08:00,
2013-01-08 06:13:00,29.3,19.4,30.06,South,180,0.0,0.0,66,0.00,,CLR,0.00,VWS V14.01,2013-01-08 12:13:00,
2013-01-08 06:14:00,29.3,19.4,30.06,South,180,0.0,0.0,66,0.00,,CLR,0.00,VWS V14.01,2013-01-08 12:14:00,
2013-01-08 06:15:00,29.3,19.4,30.06,South,180,0.0,0.0,66,0.00,,CLR,0.00,VWS V14.01,2013-01-08 12:15:00,
2013-01-08 06:19:00,29.1,19.2,30.06,South,180,0.0,0.0,66,0.00,,CLR,0.00,VWS V14.01,2013-01-08 12:19:00,
2013-01-08 06:20:00,29.3,19.4,30.06,South,180,0.0,0.0,66,0.00,,CLR,0.00,VWS V14.01,2013-01-08 12:20:00,
2013-01-08 06:22:00,29.1,19.2,30.06,SSE,158,0.0,0.0,66,0.00,,CLR,0.00,VWS V14.01,2013-01-08 12:22:00,
2013-01-08 06:26:00,29.1,19.2,30.06,South,180,0.0,4.0,66,0.00,,CLR,0.00,VWS V14.01,2013-01-08 12:26:00,
2013-01-08 06:28:00,29.1,19.2,30.06,South,180,0.0,0.0,66,0.00,,CLR,0.00,VWS V14.01,2013-01-08 12:28:00,
2013-01-08 06:30:00,28.9,19.0,30.06,South,180,0.0,0.0,66,0.00,,CLR,0.00,VWS V14.01,2013-01-08 12:30:00,
2013-01-08 06:31:00,28.9,19.0,30.06,SSE,158,0.0,0.0,66,0.00,,CLR,0.00,VWS V14.01,2013-01-08 12:31:00,
2013-01-08 06:32:00,28.9,19.0,30.06,SSE,158,0.0,0.0,66,0.00,,CLR,0.00,VWS V14.01,2013-01-08 12:32:00,
2013-01-08 06:33:00,28.9,19.0,30.07,SSE,158,0.0,0.0,66,0.00,,CLR,0.00,VWS V14.01,2013-01-08 12:33:00,
2013-01-08 06:35:00,28.9,19.0,30.07,South,180,0.0,0.0,66,0.00,,CLR,0.00,VWS V14.01,2013-01-08 12:35:00,
2013-01-08 06:37:00,28.9,19.0,30.07,SSE,158,0.0,0.0,66,0.00,,CLR,0.00,VWS V14.01,2013-01-08 12:37:00,
2013-01-08 06:38:00,28.9,19.0,30.06,South,180,0.0,0.0,66,0.00,,CLR,0.00,VWS V14.01,2013-01-08 12:38:00,
2013-01-08 06:41:00,28.9,19.0,30.07,SSE,158,0.0,0.0,66,0.00,,CLR,0.00,VWS V14.01,2013-01-08 12:41:00,
2013-01-08 06:43:00,29.1,19.2,30.07,South,180,0.0,0.0,66,0.00,,CLR,0.00,VWS V14.01,2013-01-08 12:43:00,
2013-01-08 06:44:00,29.1,19.2,30.06,South,180,0.0,0.0,66,0.00,,CLR,0.00,VWS V14.01,2013-01-08 12:44:00,
2013-01-08 06:48:00,29.1,19.2,30.06,SSE,158,0.0,0.0,66,0.00,,CLR,0.00,VWS V14.01,2013-01-08 12:48:00,
2013-01-08 06:50:00,28.9,19.0,30.07,SSE,158,0.0,0.0,66,0.00,,CLR,0.00,VWS V14.01,2013-01-08 12:50:00,
2013-01-08 06:51:00,29.1,19.2,30.07,SSE,158,0.0,0.0,66,0.00,,CLR,0.00,VWS V14.01,2013-01-08 12:51:00,
2013-01-08 06:52:00,28.7,18.8,30.07,SSE,158,0.0,0.0,66,0.00,,CLR,0.00,VWS V14.01,2013-01-08 12:52:00,
2013-01-08 06:54:00,29.1,19.2,30.07,SSE,158,0.0,0.0,66,0.00,,CLR,0.00,VWS V14.01,2013-01-08 12:54:00,
2013-01-08 06:56:00,29.1,19.2,30.06,SSE,158,4.0,4.0,66,0.00,,CLR,0.00,VWS V14.01,2013-01-08 12:56:00,
2013-01-08 06:57:00,29.1,19.2,30.07,SSE,158,0.0,4.0,66,0.00,,CLR,0.00,VWS V14.01,2013-01-08 12:57:00,
2013-01-08 07:01:00,29.1,19.2,30.06,South,180,0.0,9.8,66,0.00,,CLR,0.00,VWS V14.01,2013-01-08 13:01:00,
2013-01-08 07:02:00,29.1,19.2,30.06,SSE,158,4.8,9.8,66,0.00,,CLR,0.00,VWS V14.01,2013-01-08 13:02:00,
2013-01-08 07:06:00,29.3,19.4,30.07,SSE,158,0.0,0.0,66,0.00,,CLR,0.00,VWS V14.01,2013-01-08 13:06:00,
2013-01-08 07:08:00,29.3,19.4,30.07,South,180,0.0,0.0,66,0.00,,CLR,0.00,VWS V14.01,2013-01-08 13:08:00,
2013-01-08 07:10:00,29.3,19.4,30.07,South,180,0.0,2.6,66,0.00,,CLR,0.00,VWS V14.01,2013-01-08 13:10:00,
2013-01-08 07:13:00,29.3,19.4,30.07,SSE,158,0.0,0.0,66,0.00,,CLR,0.00,VWS V14.01,2013-01-08 13:13:00,
2013-01-08 07:14:00,29.3,19.4,30.08,SSE,158,0.0,0.0,66,0.00,,CLR,0.00,VWS V14.01,2013-01-08 13:14:00,
2013-01-08 07:16:00,29.3,19.4,30.08,SSW,202,0.0,0.0,66,0.00,,CLR,0.00,VWS V14.01,2013-01-08 13:16:00,
2013-01-08 07:19:00,29.4,19.5,30.08,SSE,158,0.0,0.0,66,0.00,,CLR,0.00,VWS V14.01,2013-01-08 13:19:00,
2013-01-08 07:20:00,29.4,19.5,30.08,North,0,0.0,0.0,66,0.00,,CLR,0.00,VWS V14.01,2013-01-08 13:20:00,
2013-01-08 07:21:00,29.3,19.4,30.08,SSW,202,0.0,0.0,66,0.00,,CLR,0.00,VWS V14.01,2013-01-08 13:21:00,
2013-01-08 07:25:00,29.4,19.5,30.07,SSW,202,0.0,0.0,66,0.00,,CLR,0.00,VWS V14.01,2013-01-08 13:25:00,
2013-01-08 07:26:00,29.4,19.5,30.07,SSE,158,0.0,0.0,66,0.00,,CLR,0.00,VWS V14.01,2013-01-08 13:26:00,
2013-01-08 07:28:00,29.4,19.5,30.07,SSE,158,0.0,0.0,66,0.00,,CLR,0.00,VWS V14.01,2013-01-08 13:28:00,
2013-01-08 07:32:00,29.6,19.6,30.08,SSE,158,0.0,4.4,66,0.00,,CLR,0.00,VWS V14.01,2013-01-08 13:32:00,
2013-01-08 07:34:00,29.6,19.6,30.08,SSE,158,2.6,2.6,66,0.00,,CLR,0.00,VWS V14.01,2013-01-08 13:34:00,
2013-01-08 07:37:00,29.6,19.6,30.08,South,180,0.0,0.0,66,0.00,,CLR,0.00,VWS V14.01,2013-01-08 13:37:00,
2013-01-08 07:39:00,29.8,19.8,30.08,South,180,1.6,1.6,66,0.00,,CLR,0.00,VWS V14.01,2013-01-08 13:39:00,
2013-01-08 07:40:00,29.8,19.8,30.08,South,180,0.0,1.6,66,0.00,,CLR,0.00,VWS V14.01,2013-01-08 13:40:00,
2013-01-08 07:43:00,29.8,19.8,30.08,SSE,158,0.0,0.0,66,0.00,,CLR,0.00,VWS V14.01,2013-01-08 13:43:00,
2013-01-08 07:45:00,29.8,19.5,30.08,South,180,0.0,0.0,65,0.00,,CLR,0.00,VWS V14.01,2013-01-08 13:45:00,
2013-01-08 07:46:00,29.8,19.5,30.08,SW,225,3.4,3.4,65,0.00,,CLR,0.00,VWS V14.01,2013-01-08 13:46:00,
2013-01-08 07:48:00,29.8,19.5,30.08,South,180,0.0,2.2,65,0.00,,CLR,0.00,VWS V14.01,2013-01-08 13:48:00,
2013-01-08 07:49:00,29.8,19.5,30.08,South,180,0.0,0.0,65,0.00,,CLR,0.00,VWS V14.01,2013-01-08 13:49:00,
2013-01-08 07:50:00,29.8,19.5,30.08,South,180,0.0,0.0,65,0.00,,CLR,0.00,VWS V14.01,2013-01-08 13:50:00,
2013-01-08 07:54:00,29.6,19.3,30.08,SSE,158,0.0,0.0,65,0.00,,CLR,0.00,VWS V14.01,2013-01-08 13:54:00,
2013-01-08 07:55:00,29.6,19.3,30.08,SSE,158,0.0,0.0,65,0.00,,CLR,0.00,VWS V14.01,2013-01-08 13:55:00,
2013-01-08 07:59:00,29.6,19.3,30.08,SSE,158,0.0,0.0,65,0.00,,CLR,0.00,VWS V14.01,2013-01-08 13:59:00,
2013-01-08 08:00:00,29.6,19.3,30.08,SSE,158,0.0,0.0,65,0.00,,CLR,0.00,VWS V14.01,2013-01-08 14:00:00,
2013-01-08 08:02:00,29.6,19.3,30.08,SSE,158,0.0,0.0,65,0.00,,CLR,0.00,VWS V14.01,2013-01-08 14:02:00,
2013-01-08 08:06:00,29.4,19.1,30.08,SSE,158,0.0,0.0,65,0.00,,CLR,0.00,VWS V14.01,2013-01-08 14:06:00,
2013-01-08 08:08:00,29.4,19.1,30.08,South,180,0.0,0.0,65,0.00,,CLR,0.00,VWS V14.01,2013-01-08 14:08:00,
2013-01-08 08:09:00,29.4,19.1,30.08,South,180,0.0,0.0,65,0.00,,CLR,0.00,VWS V14.01,2013-01-08 14:09:00,
2013-01-08 08:11:00,29.4,19.1,30.08,South,180,0.0,0.0,65,0.00,,CLR,0.00,VWS V14.01,2013-01-08 14:11:00,
2013-01-08 08:14:00,29.4,19.1,30.08,SSE,158,0.0,1.6,65,0.00,,CLR,0.00,VWS V14.01,2013-01-08 14:14:00,
2013-01-08 08:17:00,29.4,19.5,30.08,SSE,158,0.0,0.0,66,0.00,,CLR,0.00,VWS V14.01,2013-01-08 14:17:00,
2013-01-08 08:18:00,29.4,19.5,30.09,SSE,158,0.0,0.0,66,0.00,,CLR,0.00,VWS V14.01,2013-01-08 14:18:00,
2013-01-08 08:19:00,29.4,19.5,30.09,SSE,158,0.0,0.0,66,0.00,,CLR,0.00,VWS V14.01,2013-01-08 14:19:00,
2013-01-08 08:23:00,29.4,19.5,30.09,SSE,158,0.0,0.0,66,0.00,,CLR,0.00,VWS V14.01,2013-01-08 14:23:00,
2013-01-08 08:24:00,29.4,19.5,30.09,SSE,158,0.0,0.0,66,0.00,,CLR,0.00,VWS V14.01,2013-01-08 14:24:00,
2013-01-08 08:25:00,29.4,19.5,30.09,SSE,158,0.0,0.0,66,0.00,,CLR,0.00,VWS V14.01,2013-01-08 14:25:00,
2013-01-08 08:28:00,29.6,19.6,30.09,SSE,158,0.0,0.0,66,0.00,,CLR,0.00,VWS V14.01,2013-01-08 14:28:00,
2013-01-08 08:29:00,29.6,19.6,30.09,SSE,158,0.0,0.0,66,0.00,,CLR,0.00,VWS V14.01,2013-01-08 14:29:00,
2013-01-08 08:31:00,29.6,19.6,30.09,South,180,0.0,0.0,66,0.00,,CLR,0.00,VWS V14.01,2013-01-08 14:31:00,
2013-01-08 08:32:00,29.6,19.6,30.09,South,180,0.0,0.0,66,0.00,,CLR,0.00,VWS V14.01,2013-01-08 14:32:00,
2013-01-08 08:33:00,29.8,19.8,30.09,South,180,0.0,0.0,66,0.00,,CLR,0.00,VWS V14.01,2013-01-08 14:33:00,
2013-01-08 08:36:00,29.8,19.8,30.09,South,180,0.0,0.0,66,0.00,,CLR,0.00,VWS V14.01,2013-01-08 14:36:00,
2013-01-08 08:38:00,30.0,20.0,30.09,South,180,0.0,0.0,66,0.00,,CLR,0.00,VWS V14.01,2013-01-08 14:38:00,
2013-01-08 08:39:00,30.3,20.3,30.09,SSE,158,2.2,2.2,66,0.00,,CLR,0.00,VWS V14.01,2013-01-08 14:39:00,
2013-01-08 08:42:00,30.3,20.3,30.09,SSE,158,0.0,0.0,66,0.00,,CLR,0.00,VWS V14.01,2013-01-08 14:42:00,
2013-01-08 08:43:00,30.3,20.3,30.09,SSW,202,0.0,0.0,66,0.00,,CLR,0.00,VWS V14.01,2013-01-08 14:43:00,
2013-01-08 08:44:00,30.5,20.5,30.09,SSE,158,0.0,0.0,66,0.00,,CLR,0.00,VWS V14.01,2013-01-08 14:44:00,
2013-01-08 08:47:00,30.5,20.5,30.09,South,180,0.0,0.0,66,0.00,,CLR,0.00,VWS V14.01,2013-01-08 14:47:00,
2013-01-08 08:49:00,30.7,20.7,30.09,South,180,0.0,0.0,66,0.00,,CLR,0.00,VWS V14.01,2013-01-08 14:49:00,
2013-01-08 08:50:00,30.7,20.3,30.09,SSE,158,0.0,0.0,65,0.00,,CLR,0.00,VWS V14.01,2013-01-08 14:50:00,
2013-01-08 08:54:00,30.9,20.5,30.09,South,180,0.0,0.0,65,0.00,,CLR,0.00,VWS V14.01,2013-01-08 14:54:00,
2013-01-08 08:55:00,30.9,20.5,30.09,South,180,0.0,0.0,65,0.00,,CLR,0.00,VWS V14.01,2013-01-08 14:55:00,
2013-01-08 08:58:00,31.1,20.7,30.09,SSE,158,0.0,0.0,65,0.00,,CLR,0.00,VWS V14.01,2013-01-08 14:58:00,
2013-01-08 09:00:00,31.2,20.8,30.09,SSE,158,0.0,0.0,65,0.00,,CLR,0.00,VWS V14.01,2013-01-08 15:00:00,
2013-01-08 09:01:00,31.2,20.8,30.09,South,180,0.0,0.0,65,0.00,,CLR,0.00,VWS V14.01,2013-01-08 15:01:00,
2013-01-08 09:06:00,31.4,21.0,30.09,SSE,158,0.0,0.0,65,0.00,,CLR,0.00,VWS V14.01,2013-01-08 15:06:00,
2013-01-08 09:09:00,31.6,21.2,30.09,SSE,158,0.0,0.0,65,0.00,,CLR,0.00,VWS V14.01,2013-01-08 15:09:00,
2013-01-08 09:10:00,31.6,21.2,30.09,South,180,0.0,0.0,65,0.00,,CLR,0.00,VWS V14.01,2013-01-08 15:10:00,
2013-01-08 09:12:00,31.8,21.0,30.09,South,180,0.0,0.0,64,0.00,,CLR,0.00,VWS V14.01,2013-01-08 15:12:00,
2013-01-08 09:14:00,32.1,21.3,30.09,SSE,158,0.0,0.0,64,0.00,,CLR,0.00,VWS V14.01,2013-01-08 15:14:00,
2013-01-08 09:16:00,32.1,21.3,30.09,SSE,158,0.0,0.0,64,0.00,,CLR,0.00,VWS V14.01,2013-01-08 15:16:00,
2013-01-08 09:17:00,32.1,21.3,30.09,SSE,158,0.0,0.0,64,0.00,,CLR,0.00,VWS V14.01,2013-01-08 15:17:00,
2013-01-08 09:19:00,32.1,21.3,30.09,SSE,158,0.0,0.0,64,0.00,,CLR,0.00,VWS V14.01,2013-01-08 15:19:00,
2013-01-08 09:20:00,32.1,21.3,30.09,SSE,158,0.0,0.0,64,0.00,,CLR,0.00,VWS V14.01,2013-01-08 15:20:00,
2013-01-08 09:22:00,32.1,21.3,30.09,SSE,158,0.0,0.0,64,0.00,,CLR,0.00,VWS V14.01,2013-01-08 15:22:00,
2013-01-08 09:25:00,32.3,21.5,30.09,SSE,158,0.0,0.0,64,0.00,,CLR,0.00,VWS V14.01,2013-01-08 15:25:00,
2013-01-08 09:27:00,32.3,21.5,30.09,South,180,0.0,0.0,64,0.00,,CLR,0.00,VWS V14.01,2013-01-08 15:27:00,
2013-01-08 09:28:00,32.3,21.1,30.09,South,180,0.0,0.0,63,0.00,,CLR,0.00,VWS V14.01,2013-01-08 15:28:00,
2013-01-08 09:31:00,32.5,21.3,30.09,SE,135,0.0,0.0,63,0.00,,CLR,0.00,VWS V14.01,2013-01-08 15:31:00,
2013-01-08 09:33:00,32.5,21.3,30.09,South,180,0.0,0.0,63,0.00,,CLR,0.00,VWS V14.01,2013-01-08 15:33:00,
2013-01-08 09:34:00,32.7,21.5,30.09,SSE,158,0.0,0.0,63,0.00,,CLR,0.00,VWS V14.01,2013-01-08 15:34:00,
2013-01-08 09:39:00,32.7,21.5,30.09,SSE,158,0.0,0.0,63,0.00,,CLR,0.00,VWS V14.01,2013-01-08 15:39:00,
2013-01-08 09:40:00,32.9,21.7,30.09,SSE,158,0.0,0.0,63,0.00,,CLR,0.00,VWS V14.01,2013-01-08 15:40:00,
2013-01-08 09:41:00,32.9,21.7,30.09,SSE,158,4.8,4.8,63,0.00,,CLR,0.00,VWS V14.01,2013-01-08 15:41:00,
2013-01-08 09:46:00,32.9,21.3,30.09,South,180,0.0,0.0,62,0.00,,CLR,0.00,VWS V14.01,2013-01-08 15:46:00,
2013-01-08 09:47:00,33.0,21.4,30.09,South,180,0.0,0.0,62,0.00,,CLR,0.00,VWS V14.01,2013-01-08 15:47:00,
2013-01-08 09:48:00,33.0,21.4,30.09,SSE,158,0.0,0.0,62,0.00,,CLR,0.00,VWS V14.01,2013-01-08 15:48:00,
2013-01-08 09:51:00,33.2,21.6,30.09,SSE,158,0.0,0.0,62,0.00,,CLR,0.00,VWS V14.01,2013-01-08 15:51:00,
2013-01-08 09:52:00,33.2,21.6,30.09,SSE,158,0.0,0.0,62,0.00,,CLR,0.00,VWS V14.01,2013-01-08 15:52:00,
2013-01-08 09:54:00,33.2,21.6,30.09,SSW,202,0.0,0.0,62,0.00,,CLR,0.00,VWS V14.01,2013-01-08 15:54:00,
2013-01-08 09:55:00,33.4,21.8,30.09,NNE,22,0.0,0.0,62,0.00,,CLR,0.00,VWS V14.01,2013-01-08 15:55:00,
2013-01-08 09:57:00,33.4,21.8,30.09,South,180,0.0,0.0,62,0.00,,CLR,0.00,VWS V14.01,2013-01-08 15:57:00,
2013-01-08 09:58:00,33.6,22.0,30.09,South,180,0.0,0.0,62,0.00,,CLR,0.00,VWS V14.01,2013-01-08 15:58:00,
2013-01-08 10:00:00,33.8,22.2,30.09,SSW,202,3.4,3.4,62,0.00,,CLR,0.00,VWS V14.01,2013-01-08 16:00:00,
2013-01-08 10:04:00,33.9,22.3,30.10,SSE,158,0.0,0.0,62,0.00,,CLR,0.00,VWS V14.01,2013-01-08 16:04:00,
2013-01-08 10:09:00,34.3,22.3,30.09,SSW,202,0.0,2.6,61,0.00,,CLR,0.00,VWS V14.01,2013-01-08 16:09:00,
2013-01-08 10:10:00,34.3,22.3,30.09,SSW,202,9.8,9.8,61,0.00,,CLR,0.00,VWS V14.01,2013-01-08 16:10:00,
2013-01-08 10:11:00,34.3,22.3,30.09,South,180,0.0,9.8,61,0.00,,CLR,0.00,VWS V14.01,2013-01-08 16:11:00,
2013-01-08 10:16:00,34.5,22.1,30.09,South,180,0.0,0.0,60,0.00,,CLR,0.00,VWS V14.01,2013-01-08 16:16:00,
2013-01-08 10:17:00,34.7,22.2,30.09,SSW,202,0.0,0.0,60,0.00,,CLR,0.00,VWS V14.01,2013-01-08 16:17:00,
2013-01-08 10:20:00,34.7,22.2,30.09,SSE,158,6.6,6.6,60,0.00,,CLR,0.00,VWS V14.01,2013-01-08 16:20:00,
2013-01-08 10:21:00,35.0,22.5,30.09,South,180,1.2,6.6,60,0.00,,CLR,0.00,VWS V14.01,2013-01-08 16:21:00,
2013-01-08 10:22:00,35.0,22.5,30.09,SSW,202,0.0,0.0,60,0.00,,CLR,0.00,VWS V14.01,2013-01-08 16:22:00,
2013-01-08 10:25:00,35.2,22.7,30.09,SSE,158,0.0,0.0,60,0.00,,CLR,0.00,VWS V14.01,2013-01-08 16:25:00,
2013-01-08 10:27:00,35.2,22.7,30.09,SSE,158,3.0,3.0,60,0.00,,CLR,0.00,VWS V14.01,2013-01-08 16:27:00,
2013-01-08 10:29:00,35.4,22.5,30.09,SE,135,0.4,0.4,59,0.00,,CLR,0.00,VWS V14.01,2013-01-08 16:29:00,
2013-01-08 10:31:00,35.4,22.5,30.09,SSE,158,0.0,0.0,59,0.00,,CLR,0.00,VWS V14.01,2013-01-08 16:31:00,
2013-01-08 10:34:00,35.6,22.7,30.09,SSW,202,0.0,0.0,59,0.00,,CLR,0.00,VWS V14.01,2013-01-08 16:34:00,
2013-01-08 10:35:00,35.7,22.8,30.08,SE,135,4.8,4.8,59,0.00,,CLR,0.00,VWS V14.01,2013-01-08 16:35:00,
2013-01-08 10:37:00,35.7,22.8,30.08,SSW,202,0.0,0.0,59,0.00,,CLR,0.00,VWS V14.01,2013-01-08 16:37:00,
2013-01-08 10:39:00,35.7,22.4,30.09,SSW,202,0.0,0.0,58,0.00,,CLR,0.00,VWS V14.01,2013-01-08 16:39:00,
2013-01-08 10:40:00,35.7,22.4,30.08,SSW,202,0.0,0.0,58,0.00,,CLR,0.00,VWS V14.01,2013-01-08 16:40:00,
2013-01-08 10:44:00,35.9,22.6,30.09,SW,225,0.0,0.0,58,0.00,,CLR,0.00,VWS V14.01,2013-01-08 16:44:00,
2013-01-08 10:45:00,35.9,22.6,30.09,SE,135,5.8,5.8,58,0.00,,CLR,0.00,VWS V14.01,2013-01-08 16:45:00,
2013-01-08 10:46:00,36.1,22.8,30.09,South,180,0.0,5.8,58,0.00,,CLR,0.00,VWS V14.01,2013-01-08 16:46:00,
2013-01-08 10:47:00,36.1,22.8,30.08,SSE,158,2.6,2.6,58,0.00,,CLR,0.00,VWS V14.01,2013-01-08 16:47:00,
2013-01-08 10:51:00,36.3,22.5,30.08,SE,135,0.0,0.0,57,0.00,,CLR,0.00,VWS V14.01,2013-01-08 16:51:00,
2013-01-08 10:52:00,36.3,22.5,30.08,SSW,202,0.0,0.0,57,0.00,,CLR,0.00,VWS V14.01,2013-01-08 16:52:00,
2013-01-08 10:54:00,36.5,22.7,30.07,South,180,0.0,2.6,57,0.00,,CLR,0.00,VWS V14.01,2013-01-08 16:54:00,
2013-01-08 10:56:00,36.5,22.7,30.08,ESE,112,8.0,8.0,57,0.00,,CLR,0.00,VWS V14.01,2013-01-08 16:56:00,
2013-01-08 10:57:00,36.5,22.7,30.07,SSE,158,0.0,8.0,57,0.00,,CLR,0.00,VWS V14.01,2013-01-08 16:57:00,
2013-01-08 10:58:00,36.5,22.7,30.07,SSE,158,0.0,0.0,57,0.00,,CLR,0.00,VWS V14.01,2013-01-08 16:58:00,
2013-01-08 11:00:00,36.6,22.8,30.07,SW,225,0.0,0.0,57,0.00,,CLR,0.00,VWS V14.01,2013-01-08 17:00:00,
2013-01-08 11:01:00,36.8,23.0,30.07,SSE,158,0.0,0.0,57,0.00,,CLR,0.00,VWS V14.01,2013-01-08 17:01:00,
2013-01-08 11:03:00,36.8,23.0,30.08,SSE,158,0.0,2.6,57,0.00,,CLR,0.00,VWS V14.01,2013-01-08 17:03:00,
2013-01-08 11:04:00,36.8,23.0,30.07,South,180,0.0,2.6,57,0.00,,CLR,0.00,VWS V14.01,2013-01-08 17:04:00,
2013-01-08 11:08:00,37.0,23.2,30.07,SSE,158,0.0,4.4,57,0.00,,CLR,0.00,VWS V14.01,2013-01-08 17:08:00,
2013-01-08 11:09:00,37.0,23.2,30.07,SSE,158,0.0,0.0,57,0.00,,CLR,0.00,VWS V14.01,2013-01-08 17:09:00,
2013-01-08 11:13:00,37.0,22.8,30.07,SSE,158,0.0,0.0,56,0.00,,CLR,0.00,VWS V14.01,2013-01-08 17:13:00,
2013-01-08 11:14:00,37.2,23.0,30.07,SSW,202,0.0,0.0,56,0.00,,CLR,0.00,VWS V14.01,2013-01-08 17:14:00,
2013-01-08 11:15:00,37.2,23.0,30.07,SSW,202,0.0,0.0,56,0.00,,CLR,0.00,VWS V14.01,2013-01-08 17:15:00,
2013-01-08 11:18:00,37.4,23.1,30.07,SSW,202,0.0,0.0,56,0.00,,CLR,0.00,VWS V14.01,2013-01-08 17:18:00,
2013-01-08 11:20:00,37.5,23.2,30.06,SE,135,0.0,0.0,56,0.00,,CLR,0.00,VWS V14.01,2013-01-08 17:20:00,
2013-01-08 11:22:00,37.5,23.2,30.06,SSE,158,3.0,3.0,56,0.00,,CLR,0.00,VWS V14.01,2013-01-08 17:22:00,
2013-01-08 11:23:00,37.5,23.2,30.06,SSE,158,3.0,3.0,56,0.00,,CLR,0.00,VWS V14.01,2013-01-08 17:23:00,
2013-01-08 11:24:00,37.5,23.2,30.06,SSE,158,0.0,3.0,56,0.00,,CLR,0.00,VWS V14.01,2013-01-08 17:24:00,
2013-01-08 11:28:00,37.5,23.2,30.06,ESE,112,0.0,0.0,56,0.00,,CLR,0.00,VWS V14.01,2013-01-08 17:28:00,
2013-01-08 11:30:00,37.7,23.4,30.06,SSW,202,4.4,4.4,56,0.00,,CLR,0.00,VWS V14.01,2013-01-08 17:30:00,
2013-01-08 11:31:00,37.7,23.4,30.06,SSW,202,4.4,4.4,56,0.00,,CLR,0.00,VWS V14.01,2013-01-08 17:31:00,
2013-01-08 11:32:00,37.7,23.4,30.06,South,180,0.0,4.4,56,0.00,,CLR,0.00,VWS V14.01,2013-01-08 17:32:00,
2013-01-08 11:35:00,37.7,23.4,30.06,SSW,202,2.6,2.6,56,0.00,,CLR,0.00,VWS V14.01,2013-01-08 17:35:00,
2013-01-08 11:36:00,37.7,23.4,30.06,SSE,158,0.0,9.2,56,0.00,,CLR,0.00,VWS V14.01,2013-01-08 17:36:00,
2013-01-08 11:37:00,37.7,23.4,30.06,SSE,158,0.0,0.0,56,0.00,,CLR,0.00,VWS V14.01,2013-01-08 17:37:00,
2013-01-08 11:38:00,37.7,23.4,30.06,South,180,3.0,3.0,56,0.00,,CLR,0.00,VWS V14.01,2013-01-08 17:38:00,
2013-01-08 11:42:00,37.7,23.4,30.06,SSE,158,0.0,0.0,56,0.00,,CLR,0.00,VWS V14.01,2013-01-08 17:42:00,
2013-01-08 11:44:00,37.9,23.6,30.05,SSE,158,0.0,0.0,56,0.00,,CLR,0.00,VWS V14.01,2013-01-08 17:44:00,
2013-01-08 11:45:00,37.9,23.6,30.06,SW,225,6.2,6.2,56,0.00,,CLR,0.00,VWS V14.01,2013-01-08 17:45:00,
2013-01-08 11:49:00,38.1,23.8,30.05,SSE,158,3.4,3.4,56,0.00,,CLR,0.00,VWS V14.01,2013-01-08 17:49:00,
2013-01-08 11:52:00,38.1,23.8,30.06,SE,135,2.2,4.0,56,0.00,,CLR,0.00,VWS V14.01,2013-01-08 17:52:00,
2013-01-08 11:54:00,38.1,23.8,30.05,SE,135,0.0,0.0,56,0.00,,CLR,0.00,VWS V14.01,2013-01-08 17:54:00,
2013-01-08 11:56:00,38.3,24.0,30.05,SSE,158,0.0,0.0,56,0.00,,CLR,0.00,VWS V14.01,2013-01-08 17:56:00,
2013-01-08 12:01:00,38.6,24.3,30.05,South,180,2.2,2.2,56,0.00,,CLR,0.00,VWS V14.01,2013-01-08 18:01:00,
2013-01-08 12:02:00,38.6,24.3,30.05,SSE,158,2.6,2.6,56,0.00,,CLR,0.00,VWS V14.01,2013-01-08 18:02:00,
2013-01-08 12:06:00,38.6,24.3,30.04,South,180,0.0,3.4,56,0.00,,CLR,0.00,VWS V14.01,2013-01-08 18:06:00,
2013-01-08 12:07:00,38.8,24.5,30.04,SE,135,0.0,0.0,56,0.00,,CLR,0.00,VWS V14.01,2013-01-08 18:07:00,
2013-01-08 12:08:00,38.8,24.5,30.04,SSE,158,5.2,5.2,56,0.00,,CLR,0.00,VWS V14.01,2013-01-08 18:08:00,
2013-01-08 12:10:00,39.0,24.6,30.04,SSE,158,0.0,5.2,56,0.00,,CLR,0.00,VWS V14.01,2013-01-08 18:10:00,
2013-01-08 12:12:00,39.0,24.6,30.04,SSE,158,0.0,2.6,56,0.00,,CLR,0.00,VWS V14.01,2013-01-08 18:12:00,
2013-01-08 12:13:00,39.2,24.8,30.04,SE,135,0.0,0.0,56,0.00,,CLR,0.00,VWS V14.01,2013-01-08 18:13:00,
2013-01-08 12:14:00,39.3,24.9,30.04,SE,135,8.8,8.8,56,0.00,,CLR,0.00,VWS V14.01,2013-01-08 18:14:00,
2013-01-08 12:19:00,39.3,24.5,30.04,SSE,158,1.6,1.6,55,0.00,,CLR,0.00,VWS V14.01,2013-01-08 18:19:00,
2013-01-08 12:20:00,39.3,24.5,30.04,SE,135,0.0,1.6,55,0.00,,CLR,0.00,VWS V14.01,2013-01-08 18:20:00,
2013-01-08 12:21:00,39.5,24.7,30.03,SSE,158,0.0,0.0,55,0.00,,CLR,0.00,VWS V14.01,2013-01-08 18:21:00,
2013-01-08 12:26:00,39.7,24.9,30.03,SSW,202,0.0,9.8,55,0.00,,CLR,0.00,VWS V14.01,2013-01-08 18:26:00,
2013-01-08 12:27:00,39.9,25.1,30.03,SSE,158,0.0,0.0,55,0.00,,CLR,0.00,VWS V14.01,2013-01-08 18:27:00,
2013-01-08 12:28:00,39.9,25.1,30.03,SSE,158,8.4,8.4,55,0.00,,CLR,0.00,VWS V14.01,2013-01-08 18:28:00,
2013-01-08 12:31:00,40.1,25.2,30.03,SE,135,0.0,4.4,55,0.00,,CLR,0.00,VWS V14.01,2013-01-08 18:31:00,
2013-01-08 12:33:00,40.4,25.5,30.03,SE,135,0.0,10.2,55,0.00,,CLR,0.00,VWS V14.01,2013-01-08 18:33:00,
2013-01-08 12:36:00,40.6,25.7,30.03,SSE,158,0.0,0.0,55,0.00,,CLR,0.00,VWS V14.01,2013-01-08 18:36:00,
2013-01-08 12:38:00,41.0,26.1,30.03,SSE,158,0.0,0.0,55,0.00,,CLR,0.00,VWS V14.01,2013-01-08 18:38:00,
2013-01-08 12:41:00,41.5,26.1,30.03,South,180,0.0,11.0,54,0.00,,CLR,0.00,VWS V14.01,2013-01-08 18:41:00,
2013-01-08 12:43:00,41.9,26.5,30.03,SE,135,4.8,4.8,54,0.00,,CLR,0.00,VWS V14.01,2013-01-08 18:43:00,
2013-01-08 12:44:00,42.0,26.1,30.03,SSE,158,8.0,8.0,53,0.00,,CLR,0.00,VWS V14.01,2013-01-08 18:44:00,
2013-01-08 12:48:00,42.4,26.0,30.03,South,180,0.0,6.6,52,0.00,,CLR,0.00,VWS V14.01,2013-01-08 18:48:00,
2013-01-08 12:49:00,42.8,26.4,30.03,South,180,0.0,0.0,52,0.00,,CLR,0.00,VWS V14.01,2013-01-08 18:49:00,
2013-01-08 12:50:00,42.9,26.5,30.03,South,180,4.4,4.4,52,0.00,,CLR,0.00,VWS V14.01,2013-01-08 18:50:00,
2013-01-08 12:51:00,42.9,26.5,30.03,SSE,158,5.2,5.2,52,0.00,,CLR,0.00,VWS V14.01,2013-01-08 18:51:00,
2013-01-08 12:53:00,43.3,26.4,30.03,SE,135,8.4,8.4,51,0.00,,CLR,0.00,VWS V14.01,2013-01-08 18:53:00,
2013-01-08 12:54:00,43.3,26.4,30.03,SSE,158,8.8,8.8,51,0.00,,CLR,0.00,VWS V14.01,2013-01-08 18:54:00,
2013-01-08 12:56:00,43.3,25.9,30.02,South,180,5.2,5.2,50,0.00,,CLR,0.00,VWS V14.01,2013-01-08 18:56:00,
2013-01-08 12:58:00,43.5,26.1,30.03,SSE,158,4.0,4.0,50,0.00,,CLR,0.00,VWS V14.01,2013-01-08 18:58:00,
2013-01-08 13:01:00,43.5,25.6,30.02,South,180,0.0,1.6,49,0.00,,CLR,0.00,VWS V14.01,2013-01-08 19:01:00,
2013-01-08 13:02:00,43.7,25.8,30.02,SSE,158,5.2,5.2,49,0.00,,CLR,0.00,VWS V14.01,2013-01-08 19:02:00,
2013-01-08 13:04:00,43.7,25.8,30.02,SSW,202,0.0,5.2,49,0.00,,CLR,0.00,VWS V14.01,2013-01-08 19:04:00,
2013-01-08 13:05:00,43.7,25.8,30.02,SSW,202,0.0,0.0,49,0.00,,CLR,0.00,VWS V14.01,2013-01-08 19:05:00,
2013-01-08 13:08:00,43.7,25.3,30.02,SSW,202,12.0,12.0,48,0.00,,CLR,0.00,VWS V14.01,2013-01-08 19:08:00,
2013-01-08 13:10:00,43.5,25.1,30.02,SSW,202,6.2,12.0,48,0.00,,CLR,0.00,VWS V14.01,2013-01-08 19:10:00,
2013-01-08 13:13:00,43.3,24.9,30.02,SSW,202,0.0,5.2,48,0.00,,CLR,0.00,VWS V14.01,2013-01-08 19:13:00,
2013-01-08 13:15:00,43.1,24.8,30.02,SSW,202,13.8,13.8,48,0.00,,CLR,0.00,VWS V14.01,2013-01-08 19:15:00,
2013-01-08 13:17:00,43.1,24.8,30.01,SSE,158,7.0,7.0,48,0.00,,CLR,0.00,VWS V14.01,2013-01-08 19:17:00,
2013-01-08 13:20:00,42.9,25.1,30.02,South,180,0.0,4.0,49,0.00,,CLR,0.00,VWS V14.01,2013-01-08 19:20:00,
2013-01-08 13:21:00,42.9,25.1,30.01,SE,135,5.2,5.2,49,0.00,,CLR,0.00,VWS V14.01,2013-01-08 19:21:00,
2013-01-08 13:22:00,42.8,25.0,30.02,SSE,158,2.6,5.2,49,0.00,,CLR,0.00,VWS V14.01,2013-01-08 19:22:00,
2013-01-08 13:24:00,42.6,24.8,30.02,South,180,0.0,2.6,49,0.00,,CLR,0.00,VWS V14.01,2013-01-08 19:24:00,
2013-01-08 13:27:00,42.4,24.6,30.02,SW,225,0.0,11.6,49,0.00,,CLR,0.00,VWS V14.01,2013-01-08 19:27:00,
2013-01-08 13:28:00,42.4,24.6,30.02,SE,135,2.2,11.6,49,0.00,,CLR,0.00,VWS V14.01,2013-01-08 19:28:00,
2013-01-08 13:30:00,42.4,24.6,30.02,SSW,202,4.0,4.0,49,0.00,,CLR,0.00,VWS V14.01,2013-01-08 19:30:00,
2013-01-08 13:32:00,42.4,24.6,30.02,SSW,202,0.0,4.0,49,0.00,,CLR,0.00,VWS V14.01,2013-01-08 19:32:00,
2013-01-08 13:34:00,42.6,24.8,30.01,SSE,158,5.8,15.2,49,0.00,,CLR,0.00,VWS V14.01,2013-01-08 19:34:00,
2013-01-08 13:38:00,42.9,25.1,30.01,NW,315,0.0,10.6,49,0.00,,CLR,0.00,VWS V14.01,2013-01-08 19:38:00,
2013-01-08 13:41:00,43.1,25.3,30.01,SSW,202,7.0,7.0,49,0.00,,CLR,0.00,VWS V14.01,2013-01-08 19:41:00,
2013-01-08 13:43:00,43.3,25.4,30.02,SSE,158,0.0,2.6,49,0.00,,CLR,0.00,VWS V14.01,2013-01-08 19:43:00,
2013-01-08 13:47:00,43.7,25.3,30.02,SSW,202,0.0,0.0,48,0.00,,CLR,0.00,VWS V14.01,2013-01-08 19:47:00,
2013-01-08 13:48:00,43.7,25.3,30.02,South,180,5.8,5.8,48,0.00,,CLR,0.00,VWS V14.01,2013-01-08 19:48:00,
2013-01-08 13:50:00,43.7,25.3,30.01,South,180,0.0,2.2,48,0.00,,CLR,0.00,VWS V14.01,2013-01-08 19:50:00,
2013-01-08 13:53:00,43.7,25.3,30.01,ESE,112,0.0,0.0,48,0.00,,CLR,0.00,VWS V14.01,2013-01-08 19:53:00,
2013-01-08 13:54:00,43.8,25.4,30.01,SE,135,8.0,8.0,48,0.00,,CLR,0.00,VWS V14.01,2013-01-08 19:54:00,
2013-01-08 13:58:00,44.2,25.8,30.01,SSE,158,2.6,2.6,48,0.00,,CLR,0.00,VWS V14.01,2013-01-08 19:58:00,
2013-01-08 13:59:00,44.7,26.2,30.01,SSE,158,13.8,13.8,48,0.00,,CLR,0.00,VWS V14.01,2013-01-08 19:59:00,
2013-01-08 14:02:00,44.7,25.7,30.01,SSE,158,4.8,8.0,47,0.00,,CLR,0.00,VWS V14.01,2013-01-08 20:02:00,
2013-01-08 14:03:00,44.7,25.7,30.01,SW,225,11.6,11.6,47,0.00,,CLR,0.00,VWS V14.01,2013-01-08 20:03:00,
2013-01-08 14:05:00,44.9,25.9,30.01,SSW,202,5.2,5.2,47,0.00,,CLR,0.00,VWS V14.01,2013-01-08 20:05:00,
2013-01-08 14:07:00,44.9,25.9,30.01,South,180,6.2,6.2,47,0.00,,CLR,0.00,VWS V14.01,2013-01-08 20:07:00,
2013-01-08 14:08:00,45.1,26.1,30.01,South,180,3.4,9.2,47,0.00,,CLR,0.00,VWS V14.01,2013-01-08 20:08:00,
2013-01-08 14:09:00,45.1,26.1,30.01,South,180,3.4,3.4,47,0.00,,CLR,0.00,VWS V14.01,2013-01-08 20:09:00,
2013-01-08 14:14:00,44.7,25.2,30.01,SSE,158,0.0,0.0,46,0.00,,CLR,0.00,VWS V14.01,2013-01-08 20:14:00,
2013-01-08 14:17:00,44.4,24.9,30.01,SSE,158,0.0,0.0,46,0.00,,CLR,0.00,VWS V14.01,2013-01-08 20:17:00,
2013-01-08 14:19:00,44.2,24.8,30.01,SE,135,6.6,6.6,46,0.00,,CLR,0.00,VWS V14.01,2013-01-08 20:19:00,
2013-01-08 14:21:00,44.2,24.8,30.01,SSW,202,9.8,9.8,46,0.00,,CLR,0.00,VWS V14.01,2013-01-08 20:21:00,
2013-01-08 14:22:00,44.2,24.8,30.01,SE,135,0.0,9.8,46,0.00,,CLR,0.00,VWS V14.01,2013-01-08 20:22:00,
2013-01-08 14:23:00,44.2,25.3,30.01,North,0,0.0,0.0,47,0.00,,CLR,0.00,VWS V14.01,2013-01-08 20:23:00,
2013-01-08 14:24:00,44.0,25.1,30.01,SW,225,9.2,9.2,47,0.00,,CLR,0.00,VWS V14.01,2013-01-08 20:24:00,
2013-01-08 14:27:00,44.0,25.1,30.01,SSW,202,5.8,5.8,47,0.00,,CLR,0.00,VWS V14.01,2013-01-08 20:27:00,
2013-01-08 14:30:00,44.0,25.1,30.01,SSE,158,0.0,5.8,47,0.00,,CLR,0.00,VWS V14.01,2013-01-08 20:30:00,
2013-01-08 14:32:00,43.8,24.9,30.01,SE,135,0.0,0.0,47,0.00,,CLR,0.00,VWS V14.01,2013-01-08 20:32:00,
2013-01-08 14:34:00,43.8,24.9,30.00,SSW,202,12.0,12.0,47,0.00,,CLR,0.00,VWS V14.01,2013-01-08 20:34:00,
2013-01-08 14:36:00,43.7,24.8,30.01,SSE,158,6.2,12.0,47,0.00,,CLR,0.00,VWS V14.01,2013-01-08 20:36:00,
2013-01-08 14:37:00,43.7,24.8,30.00,SSE,158,6.2,6.2,47,0.00,,CLR,0.00,VWS V14.01,2013-01-08 20:37:00,
2013-01-08 14:39:00,43.7,25.3,30.00,SSE,158,7.0,7.0,48,0.00,,CLR,0.00,VWS V14.01,2013-01-08 20:39:00,
2013-01-08 14:41:00,43.5,24.6,30.00,South,180,5.8,5.8,47,0.00,,CLR,0.00,VWS V14.01,2013-01-08 20:41:00,
2013-01-08 14:43:00,43.5,25.1,30.00,SSE,158,9.2,9.2,48,0.00,,CLR,0.00,VWS V14.01,2013-01-08 20:43:00,
2013-01-08 14:46:00,43.5,25.1,30.00,SE,135,0.0,14.2,48,0.00,,CLR,0.00,VWS V14.01,2013-01-08 20:46:00,
2013-01-08 14:47:00,43.5,25.1,30.00,SE,135,5.8,5.8,48,0.00,,CLR,0.00,VWS V14.01,2013-01-08 20:47:00,
2013-01-08 14:50:00,43.7,25.3,30.00,SSW,202,12.0,12.0,48,0.00,,CLR,0.00,VWS V14.01,2013-01-08 20:50:00,
2013-01-08 14:51:00,43.5,25.1,30.00,SW,225,0.0,12.0,48,0.00,,CLR,0.00,VWS V14.01,2013-01-08 20:51:00,
2013-01-08 14:52:00,43.5,25.1,30.00,SSW,202,13.8,13.8,48,0.00,,CLR,0.00,VWS V14.01,2013-01-08 20:52:00,
2013-01-08 14:57:00,42.9,24.6,30.00,SSE,158,4.8,4.8,48,0.00,,CLR,0.00,VWS V14.01,2013-01-08 20:57:00,
2013-01-08 14:58:00,43.1,25.3,30.00,SSE,158,8.0,8.0,49,0.00,,CLR,0.00,VWS V14.01,2013-01-08 20:58:00,
2013-01-08 14:59:00,43.1,25.3,30.00,SSE,158,0.0,8.0,49,0.00,,CLR,0.00,VWS V14.01,2013-01-08 20:59:00,
2013-01-08 15:03:00,43.5,25.6,30.00,South,180,5.8,6.6,49,0.00,,CLR,0.00,VWS V14.01,2013-01-08 21:03:00,
2013-01-08 15:07:00,43.5,25.6,30.00,South,180,0.0,1.6,49,0.00,,CLR,0.00,VWS V14.01,2013-01-08 21:07:00,
2013-01-08 15:08:00,43.5,25.6,30.00,South,180,0.0,1.6,49,0.00,,CLR,0.00,VWS V14.01,2013-01-08 21:08:00,
2013-01-08 15:10:00,43.5,25.6,30.00,SSW,202,7.6,7.6,49,0.00,,CLR,0.00,VWS V14.01,2013-01-08 21:10:00,
2013-01-08 15:13:00,43.5,25.6,29.99,SSW,202,6.6,6.6,49,0.00,,CLR,0.00,VWS V14.01,2013-01-08 21:13:00,
2013-01-08 15:14:00,43.5,26.1,30.00,SSE,158,1.6,6.6,50,0.00,,CLR,0.00,VWS V14.01,2013-01-08 21:14:00,
2013-01-08 15:17:00,43.5,26.1,29.99,South,180,0.0,6.6,50,0.00,,CLR,0.00,VWS V14.01,2013-01-08 21:17:00,
2013-01-08 15:18:00,43.3,25.9,29.99,SSW,202,3.0,6.6,50,0.00,,CLR,0.00,VWS V14.01,2013-01-08 21:18:00,
2013-01-08 15:22:00,43.3,25.4,29.99,SSW,202,9.2,9.2,49,0.00,,CLR,0.00,VWS V14.01,2013-01-08 21:22:00,
2013-01-08 15:23:00,43.5,26.1,29.99,South,180,9.8,9.8,50,0.00,,CLR,0.00,VWS V14.01,2013-01-08 21:23:00,
2013-01-08 15:24:00,43.5,25.6,29.99,SSW,202,0.0,9.8,49,0.00,,CLR,0.00,VWS V14.01,2013-01-08 21:24:00,
2013-01-08 15:28:00,43.7,25.8,29.99,South,180,0.0,6.2,49,0.00,,CLR,0.00,VWS V14.01,2013-01-08 21:28:00,
2013-01-08 15:29:00,43.7,25.8,29.99,SSE,158,0.0,0.0,49,0.00,,CLR,0.00,VWS V14.01,2013-01-08 21:29:00,
2013-01-08 15:30:00,43.7,25.8,29.99,SSW,202,2.6,2.6,49,0.00,,CLR,0.00,VWS V14.01,2013-01-08 21:30:00,
2013-01-08 15:33:00,44.0,26.1,29.99,South,180,9.8,9.8,49,0.00,,CLR,0.00,VWS V14.01,2013-01-08 21:33:00,
2013-01-08 15:35:00,43.7,25.8,29.99,SW,225,3.0,11.0,49,0.00,,CLR,0.00,VWS V14.01,2013-01-08 21:35:00,
2013-01-08 15:36:00,43.7,25.8,29.99,South,180,5.2,11.0,49,0.00,,CLR,0.00,VWS V14.01,2013-01-08 21:36:00,
2013-01-08 15:39:00,43.7,25.8,29.98,North,0,0.0,8.0,49,0.00,,CLR,0.00,VWS V14.01,2013-01-08 21:39:00,
2013-01-08 15:41:00,43.5,25.6,29.98,SE,135,12.0,12.0,49,0.00,,CLR,0.00,VWS V14.01,2013-01-08 21:41:00,
2013-01-08 15:42:00,43.7,26.3,29.98,South,180,4.8,12.0,50,0.00,,CLR,0.00,VWS V14.01,2013-01-08 21:42:00,
2013-01-08 15:45:00,43.5,26.1,29.98,South,180,5.2,5.2,50,0.00,,CLR,0.00,VWS V14.01,2013-01-08 21:45:00,
2013-01-08 15:47:00,43.3,25.9,29.99,South,180,6.6,6.6,50,0.00,,CLR,0.00,VWS V14.01,2013-01-08 21:47:00,
2013-01-08 15:48:00,43.3,25.9,29.99,SSE,158,1.2,1.2,50,0.00,,CLR,0.00,VWS V14.01,2013-01-08 21:48:00,
2013-01-08 15:52:00,43.3,25.9,29.99,ESE,112,2.6,7.0,50,0.00,,CLR,0.00,VWS V14.01,2013-01-08 21:52:00,
2013-01-08 15:53:00,43.3,25.9,29.99,SSE,158,0.0,2.6,50,0.00,,CLR,0.00,VWS V14.01,2013-01-08 21:53:00,
2013-01-08 15:54:00,43.3,25.9,29.99,SSE,158,0.0,2.6,50,0.00,,CLR,0.00,VWS V14.01,2013-01-08 21:54:00,
2013-01-08 15:58:00,43.1,25.7,29.99,SSW,202,4.8,4.8,50,0.00,,CLR,0.00,VWS V14.01,2013-01-08 21:58:00,
2013-01-08 15:59:00,42.9,25.6,29.99,SE,135,8.4,8.4,50,0.00,,CLR,0.00,VWS V14.01,2013-01-08 21:59:00,
2013-01-08 16:00:00,43.1,25.7,29.98,SSE,158,0.0,0.0,50,0.00,,CLR,0.00,VWS V14.01,2013-01-08 22:00:00,
2013-01-08 16:04:00,42.9,26.0,29.99,SE,135,7.0,7.0,51,0.00,,CLR,0.00,VWS V14.01,2013-01-08 22:04:00,
2013-01-08 16:05:00,42.9,26.0,29.99,SW,225,4.8,7.0,51,0.00,,CLR,0.00,VWS V14.01,2013-01-08 22:05:00,
2013-01-08 16:06:00,42.9,26.0,29.99,SSW,202,0.0,7.0,51,0.00,,CLR,0.00,VWS V14.01,2013-01-08 22:06:00,
2013-01-08 16:08:00,42.8,25.9,29.99,SE,135,0.0,0.0,51,0.00,,CLR,0.00,VWS V14.01,2013-01-08 22:08:00,
2013-01-08 16:09:00,42.8,25.9,29.99,South,180,4.0,4.0,51,0.00,,CLR,0.00,VWS V14.01,2013-01-08 22:09:00,
2013-01-08 16:12:00,42.6,25.8,29.99,SE,135,4.8,10.6,51,0.00,,CLR,0.00,VWS V14.01,2013-01-08 22:12:00,
2013-01-08 16:13:00,42.6,25.8,29.98,SSW,202,12.8,12.8,51,0.00,,CLR,0.00,VWS V14.01,2013-01-08 22:13:00,
2013-01-08 16:14:00,42.4,25.6,29.99,North,0,0.0,12.8,51,0.00,,CLR,0.00,VWS V14.01,2013-01-08 22:14:00,
2013-01-08 16:15:00,42.4,25.6,29.99,SSE,158,3.0,3.0,51,0.00,,CLR,0.00,VWS V14.01,2013-01-08 22:15:00,
2013-01-08 16:17:00,42.4,25.6,29.98,East,90,0.0,6.6,51,0.00,,CLR,0.00,VWS V14.01,2013-01-08 22:17:00,
2013-01-08 16:20:00,42.2,25.9,29.98,SSE,158,0.0,11.0,52,0.00,,CLR,0.00,VWS V14.01,2013-01-08 22:20:00,
2013-01-08 16:24:00,41.9,25.6,29.98,SW,225,0.0,0.0,52,0.00,,CLR,0.00,VWS V14.01,2013-01-08 22:24:00,
2013-01-08 16:26:00,41.7,25.9,29.98,SE,135,2.6,6.6,53,0.00,,CLR,0.00,VWS V14.01,2013-01-08 22:26:00,
2013-01-08 16:28:00,41.5,25.7,29.98,SE,135,4.8,11.0,53,0.00,,CLR,0.00,VWS V14.01,2013-01-08 22:28:00,
2013-01-08 16:29:00,41.3,25.9,29.98,SW,225,13.4,13.4,54,0.00,,CLR,0.00,VWS V14.01,2013-01-08 22:29:00,
2013-01-08 16:31:00,41.1,25.7,29.98,SSE,158,11.6,11.6,54,0.00,,CLR,0.00,VWS V14.01,2013-01-08 22:31:00,
2013-01-08 16:32:00,41.1,25.7,29.98,South,180,8.8,8.8,54,0.00,,CLR,0.00,VWS V14.01,2013-01-08 22:32:00,
2013-01-08 16:34:00,40.8,25.5,29.98,SSE,158,4.0,8.8,54,0.00,,CLR,0.00,VWS V14.01,2013-01-08 22:34:00,
2013-01-08 16:38:00,40.6,25.7,29.98,South,180,0.0,0.0,55,0.00,,CLR,0.00,VWS V14.01,2013-01-08 22:38:00,
2013-01-08 16:39:00,40.6,25.7,29.97,SSW,202,10.2,10.2,55,0.00,,CLR,0.00,VWS V14.01,2013-01-08 22:39:00,
2013-01-08 16:40:00,40.6,25.7,29.98,South,180,0.0,0.0,55,0.00,,CLR,0.00,VWS V14.01,2013-01-08 22:40:00,
2013-01-08 16:42:00,40.4,25.5,29.97,South,180,11.0,11.0,55,0.00,,CLR,0.00,VWS V14.01,2013-01-08 22:42:00,
2013-01-08 16:45:00,40.2,25.3,29.97,SSE,158,8.8,8.8,55,0.00,,CLR,0.00,VWS V14.01,2013-01-08 22:45:00,
2013-01-08 16:47:00,40.1,25.2,29.97,SSE,158,6.6,6.6,55,0.00,,CLR,0.00,VWS V14.01,2013-01-08 22:47:00,
2013-01-08 16:48:00,40.1,25.2,29.97,SSW,202,3.4,6.6,55,0.00,,CLR,0.00,VWS V14.01,2013-01-08 22:48:00,
2013-01-08 16:50:00,40.1,25.2,29.97,SSW,202,11.6,11.6,55,0.00,,CLR,0.00,VWS V14.01,2013-01-08 22:50:00,
2013-01-08 16:54:00,39.9,25.1,29.97,SSE,158,17.0,17.0,55,0.00,,CLR,0.00,VWS V14.01,2013-01-08 22:54:00,
2013-01-08 16:55:00,39.9,25.1,29.98,South,180,4.0,4.0,55,0.00,,CLR,0.00,VWS V14.01,2013-01-08 22:55:00,
2013-01-08 16:56:00,39.9,25.1,29.98,South,180,5.8,5.8,55,0.00,,CLR,0.00,VWS V14.01,2013-01-08 22:56:00,
2013-01-08 17:02:00,39.9,25.1,29.97,South,180,4.8,14.6,55,0.00,,CLR,0.00,VWS V14.01,2013-01-08 23:02:00,
2013-01-08 17:04:00,39.9,25.1,29.97,SSE,158,3.0,3.0,55,0.00,,CLR,0.00,VWS V14.01,2013-01-08 23:04:00,
2013-01-08 17:08:00,39.9,25.1,29.97,SSW,202,0.0,0.0,55,0.00,,CLR,0.00,VWS V14.01,2013-01-08 23:08:00,
2013-01-08 17:09:00,39.9,25.1,29.97,SSW,202,0.0,0.0,55,0.00,,CLR,0.00,VWS V14.01,2013-01-08 23:09:00,
2013-01-08 17:10:00,39.9,25.1,29.97,SSE,158,0.0,0.0,55,0.00,,CLR,0.00,VWS V14.01,2013-01-08 23:10:00,
2013-01-08 17:13:00,39.7,24.9,29.97,South,180,3.4,3.4,55,0.00,,CLR,0.00,VWS V14.01,2013-01-08 23:13:00,
2013-01-08 17:14:00,39.7,24.9,29.97,South,180,4.0,4.0,55,0.00,,CLR,0.00,VWS V14.01,2013-01-08 23:14:00,
2013-01-08 17:16:00,39.7,24.9,29.97,SSE,158,0.0,0.0,55,0.00,,CLR,0.00,VWS V14.01,2013-01-08 23:16:00,
2013-01-08 17:18:00,39.7,24.9,29.97,SSE,158,0.0,11.6,55,0.00,,CLR,0.00,VWS V14.01,2013-01-08 23:18:00,
2013-01-08 17:20:00,39.7,24.9,29.97,SSW,202,10.6,10.6,55,0.00,,CLR,0.00,VWS V14.01,2013-01-08 23:20:00,
2013-01-08 17:22:00,39.9,25.1,29.97,SSE,158,12.4,12.4,55,0.00,,CLR,0.00,VWS V14.01,2013-01-08 23:22:00,
2013-01-08 17:26:00,39.9,25.1,29.97,SSE,158,10.6,10.6,55,0.00,,CLR,0.00,VWS V14.01,2013-01-08 23:26:00,
2013-01-08 17:27:00,39.9,25.1,29.97,SSE,158,4.4,10.6,55,0.00,,CLR,0.00,VWS V14.01,2013-01-08 23:27:00,
2013-01-08 17:28:00,39.9,25.1,29.97,SSE,158,0.0,0.0,55,0.00,,CLR,0.00,VWS V14.01,2013-01-08 23:28:00,
2013-01-08 17:32:00,39.9,25.1,29.96,South,180,7.6,8.4,55,0.00,,CLR,0.00,VWS V14.01,2013-01-08 23:32:00,
2013-01-08 17:33:00,39.9,25.1,29.96,SSE,158,4.0,7.6,55,0.00,,CLR,0.00,VWS V14.01,2013-01-08 23:33:00,
2013-01-08 17:37:00,39.9,25.1,29.96,SSE,158,3.4,4.8,55,0.00,,CLR,0.00,VWS V14.01,2013-01-08 23:37:00,
2013-01-08 17:38:00,39.9,25.1,29.96,SW,225,2.6,4.8,55,0.00,,CLR,0.00,VWS V14.01,2013-01-08 23:38:00,
2013-01-08 17:40:00,39.9,25.1,29.96,SSE,158,9.8,9.8,55,0.00,,FEW080,0.00,VWS V14.01,2013-01-08 23:40:00,
2013-01-08 17:43:00,39.9,25.1,29.96,SE,135,8.0,8.0,55,0.00,,FEW080,0.00,VWS V14.01,2013-01-08 23:43:00,
2013-01-08 17:44:00,40.1,25.2,29.96,South,180,4.0,8.0,55,0.00,,FEW080,0.00,VWS V14.01,2013-01-08 23:44:00,
2013-01-08 17:45:00,39.9,25.1,29.96,South,180,12.0,12.0,55,0.00,,FEW080,0.00,VWS V14.01,2013-01-08 23:45:00,
2013-01-08 17:46:00,39.9,24.6,29.96,SSE,158,6.2,12.0,54,0.00,,FEW080,0.00,VWS V14.01,2013-01-08 23:46:00,
2013-01-08 17:50:00,40.1,24.8,29.96,SSE,158,4.8,6.2,54,0.00,,FEW080,0.00,VWS V14.01,2013-01-08 23:50:00,
2013-01-08 17:51:00,40.1,24.8,29.97,SSE,158,0.0,4.8,54,0.00,,FEW080,0.00,VWS V14.01,2013-01-08 23:51:00,
2013-01-08 17:52:00,40.1,24.8,29.97,South,180,0.0,4.8,54,0.00,,FEW080,0.00,VWS V14.01,2013-01-08 23:52:00,
2013-01-08 17:54:00,40.1,24.8,29.97,SSE,158,0.0,0.0,54,0.00,,FEW080,0.00,VWS V14.01,2013-01-08 23:54:00,
2013-01-08 17:55:00,40.1,24.8,29.97,South,180,0.0,0.0,54,0.00,,FEW080,0.00,VWS V14.01,2013-01-08 23:55:00,
2013-01-08 17:58:00,40.1,24.8,29.97,South,180,2.6,2.6,54,0.00,,FEW080,0.00,VWS V14.01,2013-01-08 23:58:00,
2013-01-08 18:02:00,40.1,24.8,29.98,South,180,3.4,8.0,54,0.00,,FEW080,0.00,VWS V14.01,2013-01-09 00:02:00,
2013-01-08 18:05:00,40.2,24.9,29.98,SSE,158,0.0,9.2,54,0.00,,FEW080,0.00,VWS V14.01,2013-01-09 00:05:00,
2013-01-08 18:07:00,40.2,24.5,29.97,South,180,5.2,12.4,53,0.00,,FEW080,0.00,VWS V14.01,2013-01-09 00:07:00,
2013-01-08 18:09:00,40.2,24.5,29.97,South,180,0.0,0.0,53,0.00,,FEW080,0.00,VWS V14.01,2013-01-09 00:09:00,
2013-01-08 18:12:00,40.1,24.4,29.97,SSE,158,0.0,0.0,53,0.00,,SCT080,0.00,VWS V14.01,2013-01-09 00:12:00,
2013-01-08 18:14:00,40.1,24.4,29.97,SSE,158,0.0,7.0,53,0.00,,SCT080,0.00,VWS V14.01,2013-01-09 00:14:00,
2013-01-08 18:15:00,40.1,24.4,29.97,SSW,202,5.2,5.2,53,0.00,,SCT080,0.00,VWS V14.01,2013-01-09 00:15:00,
2013-01-08 18:18:00,40.1,24.4,29.97,South,180,0.0,0.0,53,0.00,,SCT080,0.00,VWS V14.01,2013-01-09 00:18:00,
2013-01-08 18:20:00,40.1,24.4,29.97,South,180,0.0,0.0,53,0.00,,SCT080,0.00,VWS V14.01,2013-01-09 00:20:00,
2013-01-08 18:22:00,40.1,24.4,29.97,South,180,4.4,4.4,53,0.00,,SCT080,0.00,VWS V14.01,2013-01-09 00:22:00,
2013-01-08 18:24:00,40.1,24.4,29.97,SE,135,0.0,4.4,53,0.00,,SCT080,0.00,VWS V14.01,2013-01-09 00:24:00,
2013-01-08 18:27:00,40.1,24.4,29.97,SSE,158,9.8,9.8,53,0.00,,SCT080,0.00,VWS V14.01,2013-01-09 00:27:00,
2013-01-08 18:28:00,40.1,24.4,29.97,SSE,158,0.0,0.0,53,0.00,,SCT080,0.00,VWS V14.01,2013-01-09 00:28:00,
2013-01-08 18:29:00,40.1,24.4,29.97,South,180,4.4,4.4,53,0.00,,SCT080,0.00,VWS V14.01,2013-01-09 00:29:00,
2013-01-08 18:34:00,40.2,24.5,29.97,South,180,0.0,11.0,53,0.00,,SCT080,0.00,VWS V14.01,2013-01-09 00:34:00,
2013-01-08 18:35:00,40.2,24.5,29.97,SSE,158,8.4,8.4,53,0.00,,SCT080,0.00,VWS V14.01,2013-01-09 00:35:00,
2013-01-08 18:38:00,40.4,24.6,29.98,SW,225,10.2,10.2,53,0.00,,SCT080,0.00,VWS V14.01,2013-01-09 00:38:00,
2013-01-08 18:39:00,40.4,24.6,29.98,SW,225,1.6,10.2,53,0.00,,SCT080,0.00,VWS V14.01,2013-01-09 00:39:00,
2013-01-08 18:40:00,40.4,24.6,29.98,SSW,202,5.8,10.2,53,0.00,,SCT080,0.00,VWS V14.01,2013-01-09 00:40:00,
2013-01-08 18:44:00,40.4,24.6,29.99,South,180,8.0,8.0,53,0.00,,SCT080,0.00,VWS V14.01,2013-01-09 00:44:00,
2013-01-08 18:45:00,40.4,24.6,29.99,SSE,158,4.0,8.0,53,0.00,,SCT080,0.00,VWS V14.01,2013-01-09 00:45:00,
2013-01-08 18:49:00,40.6,24.8,29.99,SSE,158,4.4,4.8,53,0.00,,SCT080,0.00,VWS V14.01,2013-01-09 00:49:00,
2013-01-08 18:52:00,40.6,24.8,30.00,South,180,0.0,0.0,53,0.00,,SCT080,0.00,VWS V14.01,2013-01-09 00:52:00,
2013-01-08 18:53:00,40.8,25.0,30.00,South,180,0.0,0.0,53,0.00,,SCT080,0.00,VWS V14.01,2013-01-09 00:53:00,
2013-01-08 18:58:00,40.8,25.0,30.00,South,180,0.0,4.4,53,0.00,,SCT080,0.00,VWS V14.01,2013-01-09 00:58:00,
2013-01-08 19:00:00,40.6,24.8,30.00,SSW,202,1.6,1.6,53,0.00,,SCT080,0.00,VWS V14.01,2013-01-09 01:00:00,
2013-01-08 19:02:00,40.6,24.8,30.00,SSE,158,0.0,1.6,53,0.00,,SCT080,0.00,VWS V14.01,2013-01-09 01:02:00,
2013-01-08 19:03:00,40.6,24.8,30.00,SSE,158,3.4,3.4,53,0.00,,SCT080,0.00,VWS V14.01,2013-01-09 01:03:00,
2013-01-08 19:04:00,40.6,24.8,30.00,SW,225,0.0,3.4,53,0.00,,SCT080,0.00,VWS V14.01,2013-01-09 01:04:00,
2013-01-08 19:05:00,40.6,24.8,30.01,South,180,2.2,2.2,53,0.00,,SCT080,0.00,VWS V14.01,2013-01-09 01:05:00,
2013-01-08 19:07:00,40.6,24.8,30.01,SW,225,4.8,4.8,53,0.00,,SCT080,0.00,VWS V14.01,2013-01-09 01:07:00,
2013-01-08 19:09:00,40.6,24.8,30.01,SW,225,0.0,0.0,53,0.00,,SCT080,0.00,VWS V14.01,2013-01-09 01:09:00,
2013-01-08 19:10:00,40.6,25.3,30.01,South,180,0.0,0.0,54,0.00,,SCT080,0.00,VWS V14.01,2013-01-09 01:10:00,
2013-01-08 19:15:00,40.4,25.1,30.01,South,180,0.0,0.0,54,0.00,,SCT080,0.00,VWS V14.01,2013-01-09 01:15:00,
2013-01-08 19:16:00,40.4,25.1,30.00,South,180,3.4,3.4,54,0.00,,SCT080,0.00,VWS V14.01,2013-01-09 01:16:00,
2013-01-08 19:19:00,40.2,24.9,30.01,South,180,10.2,10.2,54,0.00,,SCT080,0.00,VWS V14.01,2013-01-09 01:19:00,
2013-01-08 19:23:00,40.1,25.2,30.01,SSE,158,5.2,5.2,55,0.00,,SCT080,0.00,VWS V14.01,2013-01-09 01:23:00,
2013-01-08 19:24:00,40.1,25.2,30.01,South,180,0.0,0.0,55,0.00,,SCT080,0.00,VWS V14.01,2013-01-09 01:24:00,
2013-01-08 19:28:00,39.9,25.1,30.00,South,180,0.0,0.0,55,0.00,,SCT080,0.00,VWS V14.01,2013-01-09 01:28:00,
2013-01-08 19:29:00,39.9,25.1,30.00,South,180,9.2,9.2,55,0.00,,SCT080,0.00,VWS V14.01,2013-01-09 01:29:00,
2013-01-08 19:30:00,39.9,25.5,30.01,South,180,0.0,9.2,56,0.00,,SCT080,0.00,VWS V14.01,2013-01-09 01:30:00,
2013-01-08 19:32:00,39.9,25.5,30.01,South,180,0.0,0.0,56,0.00,,SCT080,0.00,VWS V14.01,2013-01-09 01:32:00,
2013-01-08 19:34:00,39.7,25.3,30.01,SSW,202,8.0,8.0,56,0.00,,SCT080,0.00,VWS V14.01,2013-01-09 01:34:00,
2013-01-08 19:36:00,39.9,25.5,30.01,SSW,202,0.0,0.0,56,0.00,,SCT080,0.00,VWS V14.01,2013-01-09 01:36:00,
2013-01-08 19:38:00,39.9,25.5,30.01,SSW,202,2.6,4.8,56,0.00,,SCT080,0.00,VWS V14.01,2013-01-09 01:38:00,
2013-01-08 19:41:00,39.9,25.5,30.01,SSE,158,8.4,8.4,56,0.00,,BKN085,0.00,VWS V14.01,2013-01-09 01:41:00,
2013-01-08 19:42:00,39.9,25.9,30.02,South,180,0.0,11.0,57,0.00,,BKN085,0.00,VWS V14.01,2013-01-09 01:42:00,
2013-01-08 19:44:00,39.9,25.9,30.01,SSW,202,0.0,0.0,57,0.00,,BKN085,0.00,VWS V14.01,2013-01-09 01:44:00,
2013-01-08 19:46:00,39.9,25.9,30.02,SSW,202,6.2,6.2,57,0.00,,BKN085,0.00,VWS V14.01,2013-01-09 01:46:00,
2013-01-08 19:48:00,39.9,25.9,30.01,South,180,0.0,0.0,57,0.00,,BKN085,0.00,VWS V14.01,2013-01-09 01:48:00,
2013-01-08 19:50:00,39.9,25.9,30.02,South,180,0.0,0.0,57,0.00,,BKN085,0.00,VWS V14.01,2013-01-09 01:50:00,
2013-01-08 19:51:00,39.9,25.9,30.01,SSW,202,0.0,0.0,57,0.00,,BKN085,0.00,VWS V14.01,2013-01-09 01:51:00,
2013-01-08 19:54:00,40.1,26.1,30.01,South,180,3.4,5.8,57,0.00,,BKN085,0.00,VWS V14.01,2013-01-09 01:54:00,
2013-01-08 19:56:00,40.1,26.1,30.01,SSW,202,0.0,3.4,57,0.00,,BKN085,0.00,VWS V14.01,2013-01-09 01:56:00,
2013-01-08 19:57:00,39.9,25.9,30.01,SSE,158,10.6,10.6,57,0.00,,BKN085,0.00,VWS V14.01,2013-01-09 01:57:00,
2013-01-08 20:01:00,39.9,25.9,30.01,SSW,202,5.8,5.8,57,0.00,,BKN085,0.00,VWS V14.01,2013-01-09 02:01:00,
2013-01-08 20:02:00,39.9,25.9,30.01,South,180,0.0,5.8,57,0.00,,BKN085,0.00,VWS V14.01,2013-01-09 02:02:00,
2013-01-08 20:04:00,39.9,25.9,30.01,South,180,0.0,0.0,57,0.00,,BKN085,0.00,VWS V14.01,2013-01-09 02:04:00,
2013-01-08 20:07:00,39.7,25.7,30.01,South,180,3.0,3.0,57,0.00,,BKN085,0.00,VWS V14.01,2013-01-09 02:07:00,
2013-01-08 20:08:00,39.7,25.7,30.01,SSE,158,0.0,3.0,57,0.00,,BKN085,0.00,VWS V14.01,2013-01-09 02:08:00,
2013-01-08 20:09:00,39.5,25.5,30.01,SSW,202,2.6,2.6,57,0.00,,BKN085,0.00,VWS V14.01,2013-01-09 02:09:00,
2013-01-08 20:10:00,39.5,25.5,30.01,SSW,202,0.0,2.6,57,0.00,,BKN085,0.00,VWS V14.01,2013-01-09 02:10:00,
2013-01-08 20:12:00,39.5,25.5,30.01,SSE,158,0.0,1.6,57,0.00,,BKN085,0.00,VWS V14.01,2013-01-09 02:12:00,
2013-01-08 20:13:00,39.5,25.5,30.02,SSW,202,0.0,0.0,57,0.00,,BKN085,0.00,VWS V14.01,2013-01-09 02:13:00,
2013-01-08 20:14:00,39.5,25.5,30.02,SSW,202,0.0,0.0,57,0.00,,BKN085,0.00,VWS V14.01,2013-01-09 02:14:00,
2013-01-08 20:16:00,39.3,25.8,30.01,SSW,202,0.0,1.2,58,0.00,,BKN085,0.00,VWS V14.01,2013-01-09 02:16:00,
2013-01-08 20:19:00,39.3,25.8,30.01,SSW,202,0.0,0.0,58,0.00,,BKN085,0.00,VWS V14.01,2013-01-09 02:19:00,
2013-01-08 20:20:00,39.3,25.8,30.01,SSW,202,0.0,0.0,58,0.00,,BKN085,0.00,VWS V14.01,2013-01-09 02:20:00,
2013-01-08 20:25:00,38.8,25.3,30.01,SSE,158,0.0,0.0,58,0.00,,BKN085,0.00,VWS V14.01,2013-01-09 02:25:00,
2013-01-08 20:26:00,38.8,25.3,30.01,South,180,0.0,0.0,58,0.00,,BKN085,0.00,VWS V14.01,2013-01-09 02:26:00,
2013-01-08 20:28:00,38.6,25.1,30.01,SSW,202,0.0,0.0,58,0.00,,BKN085,0.00,VWS V14.01,2013-01-09 02:28:00,
2013-01-08 20:30:00,38.6,25.5,30.01,SSW,202,0.0,0.0,59,0.00,,BKN085,0.00,VWS V14.01,2013-01-09 02:30:00,
2013-01-08 20:33:00,38.4,25.3,30.01,South,180,0.0,0.0,59,0.00,,BKN085,0.00,VWS V14.01,2013-01-09 02:33:00,
2013-01-08 20:34:00,38.4,25.3,30.01,South,180,0.0,0.0,59,0.00,,BKN085,0.00,VWS V14.01,2013-01-09 02:34:00,
2013-01-08 20:35:00,38.4,25.3,30.01,SSW,202,2.6,2.6,59,0.00,,BKN085,0.00,VWS V14.01,2013-01-09 02:35:00,
2013-01-08 20:36:00,38.4,25.3,30.01,North,0,0.0,2.6,59,0.00,,BKN085,0.00,VWS V14.01,2013-01-09 02:36:00,
2013-01-08 20:39:00,38.3,25.6,30.01,SSW,202,0.0,0.0,60,0.00,,BKN085,0.00,VWS V14.01,2013-01-09 02:39:00,
2013-01-08 20:40:00,38.4,25.7,30.01,SSE,158,0.0,0.0,60,0.00,,BKN100,0.00,VWS V14.01,2013-01-09 02:40:00,
2013-01-08 20:42:00,38.3,25.6,30.02,South,180,0.0,0.0,60,0.00,,BKN100,0.00,VWS V14.01,2013-01-09 02:42:00,
2013-01-08 20:43:00,38.4,25.7,30.02,SW,225,5.8,5.8,60,0.00,,BKN100,0.00,VWS V14.01,2013-01-09 02:43:00,
2013-01-08 20:45:00,38.3,25.6,30.02,South,180,0.0,0.0,60,0.00,,BKN100,0.00,VWS V14.01,2013-01-09 02:45:00,
2013-01-08 20:47:00,38.4,25.7,30.02,South,180,5.2,5.2,60,0.00,,BKN100,0.00,VWS V14.01,2013-01-09 02:47:00,
2013-01-08 20:48:00,38.3,25.6,30.02,SW,225,8.4,8.4,60,0.00,,BKN100,0.00,VWS V14.01,2013-01-09 02:48:00,
2013-01-08 20:53:00,38.6,25.9,30.01,South,180,0.0,9.2,60,0.00,,BKN100,0.00,VWS V14.01,2013-01-09 02:53:00,
2013-01-08 20:54:00,38.6,25.9,30.01,South,180,0.0,9.2,60,0.00,,BKN100,0.00,VWS V14.01,2013-01-09 02:54:00,
2013-01-08 20:55:00,38.6,25.9,30.01,SW,225,0.0,0.0,60,0.00,,BKN100,0.00,VWS V14.01,2013-01-09 02:55:00,
2013-01-08 20:58:00,38.6,25.9,30.02,SSW,202,0.0,0.0,60,0.00,,BKN100,0.00,VWS V14.01,2013-01-09 02:58:00,
2013-01-08 21:01:00,38.6,25.9,30.01,SSW,202,0.0,0.0,60,0.00,,BKN100,0.00,VWS V14.01,2013-01-09 03:01:00,
2013-01-08 21:02:00,38.6,25.9,30.01,SSE,158,0.0,0.0,60,0.00,,BKN100,0.00,VWS V14.01,2013-01-09 03:02:00,
2013-01-08 21:06:00,38.6,25.9,30.01,SSE,158,0.0,0.0,60,0.00,,BKN100,0.00,VWS V14.01,2013-01-09 03:06:00,
2013-01-08 21:07:00,38.6,25.9,30.01,SSE,158,0.0,0.0,60,0.00,,BKN100,0.00,VWS V14.01,2013-01-09 03:07:00,
2013-01-08 21:08:00,38.6,25.9,30.01,South,180,0.0,0.0,60,0.00,,BKN100,0.00,VWS V14.01,2013-01-09 03:08:00,
2013-01-08 21:11:00,38.8,26.1,30.01,South,180,0.0,0.0,60,0.00,,BKN100,0.00,VWS V14.01,2013-01-09 03:11:00,
2013-01-08 21:14:00,38.8,26.1,30.01,SSE,158,6.2,6.2,60,0.00,,BKN100,0.00,VWS V14.01,2013-01-09 03:14:00,
2013-01-08 21:19:00,38.8,26.1,30.01,SSW,202,7.6,7.6,60,0.00,,BKN100,0.00,VWS V14.01,2013-01-09 03:19:00,
2013-01-08 21:20:00,38.8,26.1,30.01,SSW,202,0.0,7.6,60,0.00,,BKN100,0.00,VWS V14.01,2013-01-09 03:20:00,
2013-01-08 21:25:00,38.8,26.1,30.00,North,0,0.0,3.0,60,0.00,,BKN100,0.00,VWS V14.01,2013-01-09 03:25:00,
2013-01-08 21:26:00,38.8,26.1,30.01,SSE,158,0.0,0.0,60,0.00,,BKN100,0.00,VWS V14.01,2013-01-09 03:26:00,
2013-01-08 21:27:00,39.0,26.3,30.01,SSW,202,0.0,0.0,60,0.00,,BKN100,0.00,VWS V14.01,2013-01-09 03:27:00,
2013-01-08 21:30:00,39.0,26.3,30.01,South,180,0.0,2.6,60,0.00,,BKN100,0.00,VWS V14.01,2013-01-09 03:30:00,
2013-01-08 21:32:00,38.8,26.1,30.01,SW,225,0.0,0.0,60,0.00,,BKN100,0.00,VWS V14.01,2013-01-09 03:32:00,
2013-01-08 21:33:00,38.8,26.1,30.01,SSW,202,0.0,0.0,60,0.00,,BKN100,0.00,VWS V14.01,2013-01-09 03:33:00,
2013-01-08 21:37:00,38.8,26.1,30.01,SSE,158,0.0,0.0,60,0.00,,BKN100,0.00,VWS V14.01,2013-01-09 03:37:00,
2013-01-08 21:39:00,38.8,26.1,30.01,South,180,10.6,10.6,60,0.00,,BKN100,0.00,VWS V14.01,2013-01-09 03:39:00,
2013-01-08 21:42:00,38.8,26.1,30.00,South,180,1.2,1.6,60,0.00,,CLR,0.00,VWS V14.01,2013-01-09 03:42:00,
2013-01-08 21:44:00,38.8,26.1,30.00,SSE,158,2.2,2.2,60,0.00,,CLR,0.00,VWS V14.01,2013-01-09 03:44:00,
2013-01-08 21:45:00,38.8,26.1,30.00,SSW,202,0.0,2.2,60,0.00,,CLR,0.00,VWS V14.01,2013-01-09 03:45:00,
2013-01-08 21:46:00,38.6,25.9,30.00,SSW,202,3.0,3.0,60,0.00,,CLR,0.00,VWS V14.01,2013-01-09 03:46:00,
2013-01-08 21:48:00,38.6,25.9,30.00,South,180,7.6,7.6,60,0.00,,CLR,0.00,VWS V14.01,2013-01-09 03:48:00,
2013-01-08 21:49:00,38.6,25.9,30.00,South,180,11.6,11.6,60,0.00,,CLR,0.00,VWS V14.01,2013-01-09 03:49:00,
2013-01-08 21:50:00,38.6,25.9,30.00,South,180,1.6,1.6,60,0.00,,CLR,0.00,VWS V14.01,2013-01-09 03:50:00,
2013-01-08 21:53:00,38.6,25.9,30.00,SSW,202,4.8,4.8,60,0.00,,CLR,0.00,VWS V14.01,2013-01-09 03:53:00,
2013-01-08 21:55:00,38.6,25.9,30.00,South,180,0.0,0.0,60,0.00,,CLR,0.00,VWS V14.01,2013-01-09 03:55:00,
2013-01-08 21:59:00,38.3,25.6,30.01,SSW,202,0.0,0.0,60,0.00,,CLR,0.00,VWS V14.01,2013-01-09 03:59:00,
2013-01-08 22:00:00,38.4,25.7,30.00,SSW,202,4.8,4.8,60,0.00,,CLR,0.00,VWS V14.01,2013-01-09 04:00:00,
2013-01-08 22:03:00,38.3,25.6,30.00,SSW,202,2.6,2.6,60,0.00,,CLR,0.00,VWS V14.01,2013-01-09 04:03:00,
2013-01-08 22:05:00,38.3,25.6,30.00,SSW,202,0.0,0.0,60,0.00,,CLR,0.00,VWS V14.01,2013-01-09 04:05:00,
2013-01-08 22:06:00,38.3,25.6,30.00,SSW,202,4.0,8.8,60,0.00,,CLR,0.00,VWS V14.01,2013-01-09 04:06:00,
2013-01-08 22:08:00,38.3,25.6,30.00,SW,225,1.2,4.0,60,0.00,,CLR,0.00,VWS V14.01,2013-01-09 04:08:00,
2013-01-08 22:09:00,38.3,25.6,30.00,SSW,202,5.8,5.8,60,0.00,,CLR,0.00,VWS V14.01,2013-01-09 04:09:00,
2013-01-08 22:10:00,38.3,25.6,30.01,South,180,0.0,5.8,60,0.00,,CLR,0.00,VWS V14.01,2013-01-09 04:10:00,
2013-01-08 22:11:00,38.3,25.6,30.00,South,180,3.4,3.4,60,0.00,,CLR,0.00,VWS V14.01,2013-01-09 04:11:00,
2013-01-08 22:15:00,38.3,25.6,30.01,South,180,6.6,6.6,60,0.00,,CLR,0.00,VWS V14.01,2013-01-09 04:15:00,
2013-01-08 22:16:00,38.3,25.6,30.01,SSW,202,0.0,6.6,60,0.00,,CLR,0.00,VWS V14.01,2013-01-09 04:16:00,
2013-01-08 22:18:00,38.3,25.6,30.01,SW,225,4.4,4.4,60,0.00,,CLR,0.00,VWS V14.01,2013-01-09 04:18:00,
2013-01-08 22:20:00,38.1,25.9,30.00,WSW,248,10.2,10.2,61,0.00,,CLR,0.00,VWS V14.01,2013-01-09 04:20:00,
2013-01-08 22:23:00,38.1,25.9,30.00,SW,225,10.2,10.2,61,0.00,,CLR,0.00,VWS V14.01,2013-01-09 04:23:00,
2013-01-08 22:25:00,38.1,25.9,30.00,SSW,202,7.0,7.0,61,0.00,,CLR,0.00,VWS V14.01,2013-01-09 04:25:00,
2013-01-08 22:26:00,38.1,25.9,30.00,South,180,4.8,7.0,61,0.00,,CLR,0.00,VWS V14.01,2013-01-09 04:26:00,
2013-01-08 22:30:00,38.1,25.9,30.00,SW,225,8.4,8.4,61,0.00,,CLR,0.00,VWS V14.01,2013-01-09 04:30:00,
2013-01-08 22:31:00,38.1,25.9,30.00,South,180,16.0,16.0,61,0.00,,CLR,0.00,VWS V14.01,2013-01-09 04:31:00,
2013-01-08 22:32:00,38.1,25.9,30.00,South,180,5.8,16.0,61,0.00,,CLR,0.00,VWS V14.01,2013-01-09 04:32:00,
2013-01-08 22:34:00,38.1,25.9,30.00,South,180,12.8,12.8,61,0.00,,CLR,0.00,VWS V14.01,2013-01-09 04:34:00,
2013-01-08 22:38:00,38.1,25.9,30.01,South,180,0.0,4.8,61,0.00,,CLR,0.00,VWS V14.01,2013-01-09 04:38:00,
2013-01-08 22:39:00,38.1,25.9,30.01,South,180,5.8,5.8,61,0.00,,CLR,0.00,VWS V14.01,2013-01-09 04:39:00,
2013-01-08 22:43:00,38.1,25.9,30.00,South,180,3.0,9.2,61,0.00,,CLR,0.00,VWS V14.01,2013-01-09 04:43:00,
2013-01-08 22:45:00,38.1,25.9,30.00,SSW,202,0.0,10.6,61,0.00,,CLR,0.00,VWS V14.01,2013-01-09 04:45:00,
2013-01-08 22:46:00,38.1,25.9,30.00,SSW,202,0.0,10.6,61,0.00,,CLR,0.00,VWS V14.01,2013-01-09 04:46:00,
2013-01-08 22:48:00,38.1,25.5,30.00,South,180,0.0,0.0,60,0.00,,CLR,0.00,VWS V14.01,2013-01-09 04:48:00,
2013-01-08 22:52:00,38.1,25.5,30.01,NNE,22,5.2,5.2,60,0.00,,CLR,0.00,VWS V14.01,2013-01-09 04:52:00,
2013-01-08 22:54:00,38.1,25.5,30.01,South,180,8.0,8.0,60,0.00,,CLR,0.00,VWS V14.01,2013-01-09 04:54:00,
2013-01-08 22:58:00,37.9,25.3,30.01,SSW,202,10.6,10.6,60,0.00,,CLR,0.00,VWS V14.01,2013-01-09 04:58:00,
2013-01-08 23:00:00,38.1,25.9,30.01,SW,225,6.2,10.6,61,0.00,,CLR,0.00,VWS V14.01,2013-01-09 05:00:00,
2013-01-08 23:01:00,38.1,25.9,30.01,SSW,202,4.4,6.2,61,0.00,,CLR,0.00,VWS V14.01,2013-01-09 05:01:00,
2013-01-08 23:04:00,37.9,25.7,30.01,South,180,5.2,9.8,61,0.00,,CLR,0.00,VWS V14.01,2013-01-09 05:04:00,
2013-01-08 23:06:00,38.1,25.9,30.01,South,180,0.0,5.2,61,0.00,,CLR,0.00,VWS V14.01,2013-01-09 05:06:00,
2013-01-08 23:07:00,38.1,25.9,30.01,South,180,0.0,0.0,61,0.00,,CLR,0.00,VWS V14.01,2013-01-09 05:07:00,
2013-01-08 23:09:00,38.1,25.9,30.01,SSW,202,4.0,4.0,61,0.00,,CLR,0.00,VWS V14.01,2013-01-09 05:09:00,
2013-01-08 23:14:00,37.9,25.7,30.01,SSW,202,0.0,0.0,61,0.00,,CLR,0.00,VWS V14.01,2013-01-09 05:14:00,
2013-01-08 23:15:00,37.7,25.5,30.01,SSW,202,5.8,5.8,61,0.00,,CLR,0.00,VWS V14.01,2013-01-09 05:15:00,
2013-01-08 23:20:00,37.7,25.5,30.01,SSW,202,0.0,0.0,61,0.00,,CLR,0.00,VWS V14.01,2013-01-09 05:20:00,
2013-01-08 23:22:00,37.7,25.5,30.02,SSW,202,0.0,0.0,61,0.00,,CLR,0.00,VWS V14.01,2013-01-09 05:22:00,
2013-01-08 23:23:00,37.5,25.3,30.02,South,180,3.4,3.4,61,0.00,,CLR,0.00,VWS V14.01,2013-01-09 05:23:00,
2013-01-08 23:25:00,37.5,25.3,30.02,SSW,202,0.0,0.0,61,0.00,,CLR,0.00,VWS V14.01,2013-01-09 05:25:00,
2013-01-08 23:26:00,37.5,25.3,30.02,SSW,202,0.0,0.0,61,0.00,,CLR,0.00,VWS V14.01,2013-01-09 05:26:00,
2013-01-08 23:28:00,37.5,25.3,30.02,SSW,202,0.0,0.0,61,0.00,,CLR,0.00,VWS V14.01,2013-01-09 05:28:00,
2013-01-08 23:30:00,37.5,25.3,30.02,SSW,202,0.0,10.2,61,0.00,,CLR,0.00,VWS V14.01,2013-01-09 05:30:00,
2013-01-08 23:34:00,37.5,25.3,30.02,SSW,202,0.0,4.0,61,0.00,,CLR,0.00,VWS V14.01,2013-01-09 05:34:00,
2013-01-08 23:35:00,37.5,25.3,30.02,SSW,202,0.0,0.0,61,0.00,,CLR,0.00,VWS V14.01,2013-01-09 05:35:00,
2013-01-08 23:36:00,37.5,25.3,30.02,SSW,202,0.0,0.0,61,0.00,,CLR,0.00,VWS V14.01,2013-01-09 05:36:00,
2013-01-08 23:39:00,37.5,25.3,30.02,SSW,202,0.0,0.0,61,0.00,,CLR,0.00,VWS V14.01,2013-01-09 05:39:00,
2013-01-08 23:41:00,37.4,25.2,30.02,SSW,202,0.0,0.0,61,0.00,,CLR,0.00,VWS V14.01,2013-01-09 05:41:00,
2013-01-08 23:42:00,37.2,25.0,30.02,South,180,0.0,0.0,61,0.00,,CLR,0.00,VWS V14.01,2013-01-09 05:42:00,
2013-01-08 23:44:00,37.0,24.8,30.02,SW,225,0.0,0.0,61,0.00,,CLR,0.00,VWS V14.01,2013-01-09 05:44:00,
2013-01-08 23:46:00,37.0,24.8,30.02,SSW,202,0.0,2.2,61,0.00,,CLR,0.00,VWS V14.01,2013-01-09 05:46:00,
2013-01-08 23:47:00,37.2,25.0,30.02,SSE,158,2.2,2.2,61,0.00,,CLR,0.00,VWS V14.01,2013-01-09 05:47:00,
2013-01-08 23:48:00,37.2,25.0,30.03,SW,225,0.0,0.0,61,0.00,,CLR,0.00,VWS V14.01,2013-01-09 05:48:00,
2013-01-08 23:51:00,37.2,25.4,30.03,South,180,0.0,0.0,62,0.00,,CLR,0.00,VWS V14.01,2013-01-09 05:51:00,
2013-01-08 23:52:00,37.4,25.6,30.02,North,0,0.0,0.0,62,0.00,,CLR,0.00,VWS V14.01,2013-01-09 05:52:00,
2013-01-08 23:54:00,37.2,25.4,30.03,SSE,158,0.0,3.0,62,0.00,,CLR,0.00,VWS V14.01,2013-01-09 05:54:00,
2013-01-08 23:56:00,37.2,25.4,30.02,SSW,202,2.6,2.6,62,0.00,,CLR,0.00,VWS V14.01,2013-01-09 05:56:00,
2013-01-08 23:57:00,37.4,25.2,30.02,South,180,0.0,2.6,61,0.00,,CLR,0.00,VWS V14.01,2013-01-09 05:57:00,